DLH456 EDDF-KLAX

Flight info

Callsign DLH456
Flight time 10h 43m
Altitude 30000
Route OBOKA Z28 DIBIR DCT BUDIP DCT GODOS DCT AGPED/N0486F320 DCT HAVEN DCT ETILO/M084F320 DCT 59N020W 5930N03000W 60N040W 60N050W/M084F340 DCT TOXIT/N0493F340 DCT LAKES DCT 57N070W 5530N08000W 5330N09000W DCT KOBID/N0486F360 DCT KP21Y DCT KU15W DCT MLS DCT FFU DCT WINEN/N0482F370 Q73 EEVUN/N0478F360 Q73 HAKMN ANJLL4
Aircraft B748/H-SDE3FGHIM1M2RWXY/LB1

Departure

Time 2026-05-05 09:50
Airport Frankfurt Main Airport (EDDF)

Arrival

Time 2026-05-05 20:33
Airport Los Angeles International Airport (KLAX)
Time Latitude Longitude Altitude Speed Heading
2026-05-05 09:16 50.04648 8.55940 352 ft 0 kts 339°
2026-05-05 09:34 50.04643 8.55943 360 ft 3 kts 339°
2026-05-05 09:34 50.04618 8.55957 362 ft 4 kts 340°
2026-05-05 09:34 50.04598 8.55968 363 ft 4 kts 338°
2026-05-05 09:35 50.04575 8.55983 360 ft 4 kts 329°
2026-05-05 09:35 50.04573 8.56045 360 ft 4 kts 250°
2026-05-05 09:35 50.04582 8.56081 360 ft 1 kts 249°
2026-05-05 09:36 50.04588 8.56105 362 ft 0 kts 250°
2026-05-05 09:40 50.04585 8.56093 365 ft 2 kts 250°
2026-05-05 09:40 50.04577 8.56059 363 ft 5 kts 250°
2026-05-05 09:40 50.04562 8.56000 362 ft 7 kts 245°
2026-05-05 09:40 50.04528 8.55955 366 ft 7 kts 200°
2026-05-05 09:41 50.04484 8.55937 366 ft 6 kts 193°
2026-05-05 09:41 50.04436 8.55915 366 ft 9 kts 197°
2026-05-05 09:41 50.04368 8.55919 363 ft 11 kts 165°
2026-05-05 09:41 50.04286 8.55971 365 ft 13 kts 141°
2026-05-05 09:42 50.04273 8.56096 364 ft 12 kts 67°
2026-05-05 09:42 50.04309 8.56232 365 ft 15 kts 69°
2026-05-05 09:42 50.04350 8.56403 363 ft 18 kts 69°
2026-05-05 09:42 50.04397 8.56598 365 ft 21 kts 70°
2026-05-05 09:43 50.04450 8.56821 365 ft 23 kts 69°
2026-05-05 09:43 50.04508 8.57062 366 ft 25 kts 70°
2026-05-05 09:43 50.04568 8.57317 365 ft 24 kts 69°
2026-05-05 09:43 50.04624 8.57548 362 ft 22 kts 70°
2026-05-05 09:44 50.04674 8.57757 366 ft 19 kts 71°
2026-05-05 09:44 50.04704 8.57917 365 ft 10 kts 91°
2026-05-05 09:44 50.04676 8.57990 368 ft 7 kts 142°
2026-05-05 09:44 50.04641 8.58010 366 ft 5 kts 166°
2026-05-05 09:45 50.04605 8.58027 366 ft 6 kts 162°
2026-05-05 09:45 50.04571 8.58059 366 ft 5 kts 128°
2026-05-05 09:45 50.04565 8.58104 367 ft 4 kts 86°
2026-05-05 09:45 50.04575 8.58153 368 ft 6 kts 70°
2026-05-05 09:46 50.04587 8.58201 368 ft 8 kts 69°
2026-05-05 09:46 50.04612 8.58302 369 ft 12 kts 70°
2026-05-05 09:46 50.04657 8.58500 368 ft 18 kts 70°
2026-05-05 09:46 50.04689 8.58630 366 ft 21 kts 70°
2026-05-05 09:47 50.04674 8.58742 368 ft 7 kts 137°
2026-05-05 09:47 50.04636 8.58761 369 ft 4 kts 182°
2026-05-05 09:47 50.04614 8.58746 369 ft 4 kts 207°
2026-05-05 09:47 50.04588 8.58721 370 ft 5 kts 215°
2026-05-05 09:48 50.04559 8.58689 372 ft 6 kts 215°
2026-05-05 09:48 50.04520 8.58647 372 ft 8 kts 216°
2026-05-05 09:48 50.04482 8.58579 370 ft 7 kts 248°
2026-05-05 09:48 50.04470 8.58527 373 ft 5 kts 250°
2026-05-05 09:49 50.04414 8.58289 367 ft 53 kts 250°
2026-05-05 09:49 50.04205 8.57414 367 ft 116 kts 250°
2026-05-05 09:49 50.03863 8.55979 364 ft 166 kts 249°
2026-05-05 09:49 50.03411 8.54114 507 ft 197 kts 249°
2026-05-05 09:50 50.02914 8.52104 1222 ft 197 kts 249°
2026-05-05 09:50 50.02403 8.50110 1861 ft 203 kts 245°
2026-05-05 09:50 50.01545 8.48338 2221 ft 211 kts 222°
2026-05-05 09:50 50.00292 8.47051 2424 ft 220 kts 202°
2026-05-05 09:51 49.98793 8.46528 2771 ft 226 kts 184°
2026-05-05 09:51 49.97246 8.46645 3391 ft 219 kts 173°
2026-05-05 09:51 49.95735 8.46834 3951 ft 217 kts 182°
2026-05-05 09:51 49.94253 8.46426 4379 ft 218 kts 197°
2026-05-05 09:52 49.92833 8.45630 4789 ft 220 kts 200°
2026-05-05 09:52 49.91423 8.44565 5026 ft 228 kts 216°
2026-05-05 09:52 49.90311 8.42827 5398 ft 229 kts 234°
2026-05-05 09:52 49.89578 8.40658 5808 ft 229 kts 245°
2026-05-05 09:53 49.88911 8.38339 5995 ft 237 kts 244°
2026-05-05 09:53 49.88439 8.35866 6114 ft 250 kts 260°
2026-05-05 09:53 49.88460 8.33090 6261 ft 262 kts 276°
2026-05-05 09:53 49.88773 8.30325 6602 ft 262 kts 277°
2026-05-05 09:54 49.89084 8.27537 6826 ft 267 kts 278°
2026-05-05 09:54 49.89733 8.24770 6978 ft 277 kts 297°
2026-05-05 09:54 49.90813 8.22305 7308 ft 278 kts 307°
2026-05-05 09:54 49.92090 8.20039 7492 ft 285 kts 310°
2026-05-05 09:55 49.93397 8.17675 7766 ft 288 kts 307°
2026-05-05 09:55 49.94655 8.15276 8041 ft 290 kts 311°
2026-05-05 09:55 49.96148 8.13087 8200 ft 297 kts 319°
2026-05-05 09:55 49.97782 8.11091 8480 ft 297 kts 320°
2026-05-05 09:56 49.99377 8.09134 8863 ft 293 kts 320°
2026-05-05 09:56 50.00931 8.07127 9112 ft 295 kts 317°
2026-05-05 09:56 50.02481 8.04930 9265 ft 299 kts 314°
2026-05-05 09:56 50.03971 8.02703 9650 ft 296 kts 315°
2026-05-05 09:57 50.05497 8.00581 9873 ft 298 kts 317°
2026-05-05 09:57 50.07113 7.98466 9996 ft 303 kts 320°
2026-05-05 09:57 50.08765 7.96407 10106 ft 310 kts 318°
2026-05-05 09:57 50.10434 7.94182 10267 ft 326 kts 316°
2026-05-05 09:58 50.12172 7.91789 10546 ft 338 kts 316°
2026-05-05 09:58 50.13984 7.89333 11063 ft 346 kts 317°
2026-05-05 09:58 50.15811 7.86891 11580 ft 352 kts 317°
2026-05-05 09:58 50.17680 7.84378 12122 ft 357 kts 317°
2026-05-05 09:59 50.19572 7.81813 12698 ft 361 kts 317°
2026-05-05 09:59 50.21490 7.79213 13295 ft 365 kts 317°
2026-05-05 09:59 50.23405 7.76621 13847 ft 369 kts 317°
2026-05-05 09:59 50.25407 7.74039 14386 ft 374 kts 325°
2026-05-05 10:00 50.27706 7.72145 14891 ft 378 kts 334°
2026-05-05 10:00 50.30157 7.70537 15425 ft 382 kts 336°
2026-05-05 10:00 50.32613 7.68979 15932 ft 385 kts 335°
2026-05-05 10:00 50.35066 7.67288 16475 ft 388 kts 333°
2026-05-05 10:01 50.37549 7.65525 16995 ft 391 kts 334°
2026-05-05 10:01 50.40052 7.63801 17542 ft 394 kts 334°
2026-05-05 10:01 50.42563 7.62102 18072 ft 397 kts 334°
2026-05-05 10:01 50.45125 7.60347 18564 ft 400 kts 334°
2026-05-05 10:02 50.47686 7.58570 19028 ft 402 kts 334°
2026-05-05 10:02 50.50237 7.56804 19468 ft 405 kts 334°
2026-05-05 10:02 50.52842 7.55011 19930 ft 408 kts 334°
2026-05-05 10:02 50.55420 7.53213 20386 ft 410 kts 331°
2026-05-05 10:03 50.57895 7.50913 20834 ft 411 kts 325°
2026-05-05 10:03 50.60258 7.48455 21236 ft 413 kts 323°
2026-05-05 10:03 50.62670 7.45909 21686 ft 416 kts 324°
2026-05-05 10:03 50.65087 7.43441 22103 ft 419 kts 326°
2026-05-05 10:04 50.67557 7.40948 22537 ft 421 kts 326°
2026-05-05 10:04 50.70026 7.38414 22968 ft 423 kts 325°
2026-05-05 10:04 50.72481 7.35867 23372 ft 426 kts 324°
2026-05-05 10:04 50.74747 7.32940 23711 ft 424 kts 310°
2026-05-05 10:05 50.76561 7.29252 24038 ft 423 kts 303°
2026-05-05 10:05 50.78262 7.25406 24351 ft 425 kts 302°
2026-05-05 10:05 50.79942 7.21582 24654 ft 427 kts 303°
2026-05-05 10:05 50.81651 7.17761 24965 ft 429 kts 303°
2026-05-05 10:06 50.83381 7.13911 25263 ft 430 kts 303°
2026-05-05 10:06 50.85120 7.10001 25569 ft 432 kts 302°
2026-05-05 10:06 50.86839 7.06111 25869 ft 433 kts 302°
2026-05-05 10:06 50.88560 7.02226 26167 ft 435 kts 303°
2026-05-05 10:07 50.90312 6.98279 26455 ft 437 kts 302°
2026-05-05 10:07 50.92051 6.94351 26752 ft 438 kts 302°
2026-05-05 10:07 50.93786 6.90423 27099 ft 440 kts 302°
2026-05-05 10:07 50.95564 6.86390 27391 ft 441 kts 302°
2026-05-05 10:08 50.97317 6.82413 27659 ft 443 kts 302°
2026-05-05 10:08 50.99076 6.78414 27947 ft 444 kts 302°
2026-05-05 10:08 51.00845 6.74387 28232 ft 446 kts 302°
2026-05-05 10:08 51.02635 6.70302 28517 ft 447 kts 302°
2026-05-05 10:09 51.04402 6.66269 28783 ft 449 kts 302°
2026-05-05 10:09 51.06173 6.62217 29076 ft 450 kts 301°
2026-05-05 10:09 51.07958 6.58126 29349 ft 452 kts 301°
2026-05-05 10:09 51.09760 6.53991 29605 ft 453 kts 301°
2026-05-05 10:10 51.11544 6.49889 29864 ft 455 kts 301°
2026-05-05 10:10 51.13352 6.45723 29904 ft 453 kts 301°
2026-05-05 10:10 51.16920 6.37486 29905 ft 452 kts 301°
2026-05-05 10:11 51.20475 6.29251 29897 ft 450 kts 300°
2026-05-05 10:11 51.24008 6.21043 29894 ft 449 kts 300°
2026-05-05 10:12 51.27539 6.12811 29910 ft 448 kts 300°
2026-05-05 10:12 51.30922 6.04546 29900 ft 447 kts 300°
2026-05-05 10:13 51.34345 5.96245 29899 ft 447 kts 299°
2026-05-05 10:13 51.37892 5.88031 29927 ft 450 kts 309°
2026-05-05 10:14 51.42696 5.81502 29932 ft 455 kts 319°
2026-05-05 10:14 51.47694 5.75328 29941 ft 454 kts 318°
2026-05-05 10:15 51.52661 5.69122 29943 ft 454 kts 319°
2026-05-05 10:15 51.57644 5.62906 29948 ft 454 kts 318°
2026-05-05 10:16 51.62598 5.56695 29929 ft 454 kts 318°
2026-05-05 10:16 51.67552 5.50473 29927 ft 454 kts 318°
2026-05-05 10:17 51.72513 5.44223 29930 ft 450 kts 318°
2026-05-05 10:17 51.77455 5.37977 29936 ft 450 kts 318°
2026-05-05 10:18 51.82377 5.31741 29935 ft 448 kts 318°
2026-05-05 10:18 51.87257 5.25537 29930 ft 448 kts 318°
2026-05-05 10:19 51.92147 5.19306 29933 ft 448 kts 318°
2026-05-05 10:19 51.97025 5.13073 29939 ft 445 kts 317°
2026-05-05 10:20 52.01886 5.06841 29938 ft 445 kts 317°
2026-05-05 10:20 52.06715 5.00635 29950 ft 445 kts 317°
2026-05-05 10:21 52.11573 4.94373 29958 ft 445 kts 317°
2026-05-05 10:21 52.16410 4.88119 29964 ft 444 kts 317°
2026-05-05 10:22 52.21225 4.81880 29971 ft 442 kts 317°
2026-05-05 10:22 52.26034 4.75623 29973 ft 442 kts 317°
2026-05-05 10:23 52.30817 4.69389 29969 ft 442 kts 317°
2026-05-05 10:23 52.35606 4.63127 29937 ft 442 kts 317°
2026-05-05 10:24 52.40432 4.56799 29954 ft 442 kts 317°
2026-05-05 10:24 52.45204 4.50521 29938 ft 442 kts 317°
2026-05-05 10:25 52.49988 4.44215 29948 ft 441 kts 317°
2026-05-05 10:25 52.54764 4.37895 29951 ft 441 kts 317°
2026-05-05 10:26 52.59543 4.31558 29961 ft 441 kts 317°
2026-05-05 10:26 52.64317 4.25206 29961 ft 441 kts 317°
2026-05-05 10:27 52.69094 4.18833 29967 ft 441 kts 317°
2026-05-05 10:27 52.73837 4.12487 29966 ft 440 kts 317°
2026-05-05 10:28 52.78587 4.06112 29964 ft 441 kts 317°
2026-05-05 10:28 52.83359 3.99689 29981 ft 441 kts 317°
2026-05-05 10:29 52.88102 3.93289 29981 ft 442 kts 317°
2026-05-05 10:29 52.92864 3.86841 29985 ft 442 kts 317°
2026-05-05 10:30 52.97601 3.80410 29992 ft 443 kts 318°
2026-05-05 10:30 53.02370 3.73917 29993 ft 444 kts 318°
2026-05-05 10:31 53.07145 3.67395 29995 ft 444 kts 318°
2026-05-05 10:31 53.11932 3.60838 30014 ft 445 kts 318°
2026-05-05 10:32 53.16704 3.54282 30010 ft 445 kts 318°
2026-05-05 10:32 53.21458 3.47731 30018 ft 445 kts 318°
2026-05-05 10:33 53.25852 3.40492 30023 ft 441 kts 301°
2026-05-05 10:33 53.29192 3.31886 30005 ft 441 kts 301°
2026-05-05 10:34 53.32497 3.23286 30000 ft 441 kts 301°
2026-05-05 10:34 53.35820 3.14635 30005 ft 441 kts 301°
2026-05-05 10:35 53.39107 3.06031 29997 ft 442 kts 301°
2026-05-05 10:35 53.42439 2.97290 29998 ft 443 kts 301°
2026-05-05 10:36 53.45742 2.88588 29994 ft 443 kts 301°
2026-05-05 10:36 53.49037 2.79882 29997 ft 444 kts 301°
2026-05-05 10:37 53.52338 2.71125 29999 ft 444 kts 301°
2026-05-05 10:37 53.55622 2.62386 29998 ft 444 kts 301°
2026-05-05 10:38 53.58901 2.53630 30000 ft 444 kts 301°
2026-05-05 10:38 53.62191 2.44811 30002 ft 445 kts 301°
2026-05-05 10:39 53.65476 2.35977 30003 ft 445 kts 301°
2026-05-05 10:39 53.68767 2.27094 30004 ft 446 kts 301°
2026-05-05 10:40 53.71512 2.19659 30006 ft 446 kts 301°
2026-05-05 10:40 53.74730 2.10918 30001 ft 446 kts 301°
2026-05-05 10:41 53.77991 2.02025 30013 ft 447 kts 301°
2026-05-05 10:41 53.81259 1.93085 30015 ft 447 kts 301°
2026-05-05 10:42 53.86152 1.79636 30013 ft 447 kts 300°
2026-05-05 10:43 53.89392 1.70688 30015 ft 448 kts 300°
2026-05-05 10:43 53.92644 1.61679 30011 ft 448 kts 300°
2026-05-05 10:44 53.95895 1.52636 30006 ft 448 kts 300°
2026-05-05 10:44 53.99127 1.43617 30017 ft 448 kts 300°
2026-05-05 10:45 54.02348 1.34591 30006 ft 446 kts 300°
2026-05-05 10:45 54.05557 1.25569 30008 ft 445 kts 300°
2026-05-05 10:46 54.08756 1.16540 30006 ft 445 kts 300°
2026-05-05 10:46 54.11936 1.07535 30004 ft 444 kts 300°
2026-05-05 10:47 54.15122 0.98478 30006 ft 444 kts 300°
2026-05-05 10:47 54.18275 0.89482 30007 ft 444 kts 299°
2026-05-05 10:48 54.21436 0.80430 30009 ft 443 kts 299°
2026-05-05 10:48 54.24582 0.71389 30020 ft 443 kts 299°
2026-05-05 10:49 54.27710 0.62367 30014 ft 439 kts 299°
2026-05-05 10:49 54.30818 0.53366 30015 ft 439 kts 299°
2026-05-05 10:50 54.33927 0.44331 30010 ft 438 kts 299°
2026-05-05 10:50 54.37003 0.35361 30016 ft 438 kts 298°
2026-05-05 10:51 54.40084 0.26341 30016 ft 437 kts 298°
2026-05-05 10:51 54.43149 0.17336 30003 ft 437 kts 298°
2026-05-05 10:52 54.46202 0.08331 30020 ft 437 kts 298°
2026-05-05 10:52 54.49249 -0.00687 30022 ft 437 kts 298°
2026-05-05 10:53 54.52295 -0.09731 30015 ft 433 kts 298°
2026-05-05 10:53 54.55279 -0.18636 30100 ft 431 kts 298°
2026-05-05 10:53 54.56790 -0.23152 30249 ft 433 kts 298°
2026-05-05 10:54 54.58284 -0.27626 30382 ft 433 kts 298°
2026-05-05 10:54 54.59799 -0.32174 30543 ft 435 kts 298°
2026-05-05 10:54 54.61292 -0.36662 30688 ft 436 kts 298°
2026-05-05 10:54 54.62796 -0.41192 30852 ft 437 kts 298°
2026-05-05 10:55 54.64311 -0.45766 30991 ft 438 kts 298°
2026-05-05 10:55 54.65829 -0.50356 31155 ft 439 kts 298°
2026-05-05 10:55 54.67333 -0.54910 31369 ft 440 kts 297°
2026-05-05 10:55 54.68860 -0.59545 31552 ft 442 kts 297°
2026-05-05 10:56 54.70369 -0.64136 31733 ft 443 kts 297°
2026-05-05 10:56 54.71888 -0.68762 31922 ft 444 kts 297°
2026-05-05 10:56 54.73423 -0.73448 32035 ft 447 kts 297°
2026-05-05 10:57 54.76472 -0.82779 32018 ft 444 kts 297°
2026-05-05 10:57 54.79504 -0.92101 32043 ft 443 kts 297°
2026-05-05 10:58 54.82516 -1.01391 32023 ft 442 kts 297°
2026-05-05 10:58 54.85500 -1.10632 32029 ft 441 kts 297°
2026-05-05 10:59 54.88494 -1.19943 32039 ft 447 kts 297°
2026-05-05 10:59 54.91559 -1.29509 32033 ft 457 kts 297°
2026-05-05 11:00 54.94643 -1.39169 32056 ft 462 kts 297°
2026-05-05 11:00 54.97768 -1.49004 32055 ft 464 kts 297°
2026-05-05 11:01 55.00879 -1.58831 32048 ft 464 kts 297°
2026-05-05 11:01 55.03976 -1.68653 32060 ft 463 kts 296°
2026-05-05 11:02 55.07074 -1.78523 32058 ft 463 kts 296°
2026-05-05 11:02 55.10144 -1.88341 32047 ft 463 kts 296°
2026-05-05 11:03 55.13277 -1.98144 32042 ft 464 kts 298°
2026-05-05 11:03 55.16478 -2.07916 32041 ft 463 kts 297°
2026-05-05 11:04 55.19704 -2.17709 32040 ft 464 kts 298°
2026-05-05 11:04 55.22846 -2.27315 32034 ft 465 kts 297°
2026-05-05 11:05 55.26072 -2.37218 32037 ft 466 kts 297°
2026-05-05 11:05 55.29258 -2.47026 32033 ft 466 kts 297°
2026-05-05 11:06 55.32471 -2.56968 32034 ft 466 kts 297°
2026-05-05 11:06 55.35662 -2.66878 32037 ft 467 kts 297°
2026-05-05 11:07 55.38842 -2.76798 32037 ft 466 kts 297°
2026-05-05 11:07 55.42021 -2.86753 32038 ft 468 kts 297°
2026-05-05 11:08 55.45200 -2.96749 32044 ft 468 kts 297°
2026-05-05 11:08 55.48493 -3.06639 32039 ft 468 kts 298°
2026-05-05 11:09 55.51779 -3.16569 32040 ft 466 kts 298°
2026-05-05 11:09 55.55065 -3.26359 32041 ft 465 kts 298°
2026-05-05 11:10 55.58330 -3.36227 32041 ft 465 kts 298°
2026-05-05 11:10 55.61607 -3.46115 32044 ft 467 kts 298°
2026-05-05 11:11 55.64875 -3.56045 32047 ft 467 kts 298°
2026-05-05 11:11 55.68134 -3.65979 32048 ft 467 kts 298°
2026-05-05 11:12 55.71403 -3.75986 32042 ft 468 kts 298°
2026-05-05 11:12 55.74669 -3.86027 32055 ft 472 kts 298°
2026-05-05 11:13 55.77950 -3.96152 32065 ft 475 kts 298°
2026-05-05 11:13 55.81235 -4.06337 32072 ft 475 kts 298°
2026-05-05 11:14 55.84513 -4.16543 32080 ft 475 kts 298°
2026-05-05 11:14 55.87786 -4.26771 32089 ft 475 kts 298°
2026-05-05 11:15 55.90985 -4.36820 32086 ft 475 kts 298°
2026-05-05 11:15 55.94243 -4.47094 32074 ft 476 kts 297°
2026-05-05 11:16 55.97484 -4.57358 32081 ft 476 kts 298°
2026-05-05 11:16 56.00717 -4.67643 32081 ft 476 kts 297°
2026-05-05 11:17 56.03941 -4.77936 32071 ft 476 kts 297°
2026-05-05 11:17 56.07164 -4.88280 32067 ft 476 kts 297°
2026-05-05 11:18 56.10383 -4.98648 32074 ft 476 kts 297°
2026-05-05 11:18 56.13583 -5.09008 32079 ft 476 kts 297°
2026-05-05 11:19 56.16777 -5.19391 32073 ft 477 kts 297°
2026-05-05 11:19 56.19961 -5.29783 32089 ft 474 kts 297°
2026-05-05 11:20 56.23060 -5.39946 32083 ft 473 kts 297°
2026-05-05 11:20 56.26209 -5.50319 32085 ft 472 kts 297°
2026-05-05 11:21 56.29360 -5.60742 32086 ft 472 kts 297°
2026-05-05 11:21 56.32479 -5.71107 32092 ft 472 kts 297°
2026-05-05 11:22 56.35597 -5.81511 32097 ft 472 kts 297°
2026-05-05 11:22 56.38718 -5.91972 32101 ft 472 kts 297°
2026-05-05 11:23 56.41812 -6.02390 32095 ft 472 kts 297°
2026-05-05 11:23 56.44893 -6.12812 32093 ft 470 kts 296°
2026-05-05 11:24 56.47951 -6.23200 32093 ft 468 kts 296°
2026-05-05 11:24 56.50999 -6.33602 32104 ft 468 kts 296°
2026-05-05 11:25 56.54038 -6.44020 32098 ft 468 kts 296°
2026-05-05 11:25 56.57068 -6.54452 32116 ft 468 kts 296°
2026-05-05 11:26 56.60090 -6.64905 32125 ft 468 kts 296°
2026-05-05 11:26 56.63121 -6.75433 32126 ft 468 kts 296°
2026-05-05 11:27 56.66129 -6.85933 32139 ft 468 kts 296°
2026-05-05 11:27 56.69093 -6.96325 32132 ft 465 kts 296°
2026-05-05 11:28 56.72063 -7.06784 32129 ft 465 kts 296°
2026-05-05 11:28 56.75038 -7.17307 32133 ft 465 kts 295°
2026-05-05 11:29 56.77975 -7.27744 32146 ft 466 kts 295°
2026-05-05 11:29 56.80935 -7.38315 32146 ft 466 kts 295°
2026-05-05 11:30 56.83854 -7.48784 32150 ft 466 kts 295°
2026-05-05 11:30 56.86796 -7.59383 32155 ft 466 kts 295°
2026-05-05 11:31 56.89710 -7.69931 32164 ft 464 kts 295°
2026-05-05 11:31 56.92598 -7.80435 32171 ft 464 kts 295°
2026-05-05 11:32 56.95492 -7.91004 32171 ft 464 kts 295°
2026-05-05 11:32 56.98376 -8.01589 32171 ft 464 kts 295°
2026-05-05 11:33 57.01242 -8.12159 32180 ft 464 kts 295°
2026-05-05 11:33 57.04120 -8.22819 32180 ft 464 kts 295°
2026-05-05 11:34 57.06979 -8.33463 32177 ft 465 kts 295°
2026-05-05 11:34 57.09823 -8.44095 32206 ft 465 kts 295°
2026-05-05 11:35 57.12656 -8.54739 32180 ft 461 kts 294°
2026-05-05 11:35 57.15454 -8.65304 32184 ft 461 kts 294°
2026-05-05 11:36 57.17791 -8.74163 32184 ft 461 kts 294°
2026-05-05 11:36 57.20596 -8.84842 32192 ft 461 kts 294°
2026-05-05 11:37 57.23367 -8.95444 32181 ft 461 kts 294°
2026-05-05 11:37 57.26160 -9.06179 32185 ft 462 kts 294°
2026-05-05 11:38 57.28924 -9.16855 32186 ft 462 kts 294°
2026-05-05 11:38 57.31696 -9.27614 32210 ft 462 kts 294°
2026-05-05 11:39 57.34434 -9.38292 32199 ft 460 kts 294°
2026-05-05 11:39 57.37170 -9.49012 32207 ft 460 kts 294°
2026-05-05 11:40 57.39905 -9.59780 32207 ft 460 kts 293°
2026-05-05 11:40 57.42620 -9.70524 32203 ft 461 kts 293°
2026-05-05 11:41 57.45315 -9.81241 32206 ft 461 kts 293°
2026-05-05 11:41 57.48019 -9.92044 32207 ft 461 kts 293°
2026-05-05 11:42 57.50586 -10.02940 32226 ft 460 kts 288°
2026-05-05 11:42 57.52782 -10.14181 32210 ft 460 kts 288°
2026-05-05 11:43 57.54954 -10.25302 32216 ft 458 kts 288°
2026-05-05 11:43 57.57116 -10.36466 32209 ft 458 kts 288°
2026-05-05 11:44 57.59273 -10.47659 32215 ft 458 kts 288°
2026-05-05 11:44 57.61405 -10.58785 32219 ft 458 kts 288°
2026-05-05 11:45 57.63537 -10.69979 32226 ft 458 kts 288°
2026-05-05 11:45 57.65665 -10.81215 32227 ft 458 kts 288°
2026-05-05 11:46 57.67777 -10.92433 32227 ft 458 kts 288°
2026-05-05 11:46 57.69887 -11.03707 32214 ft 459 kts 288°
2026-05-05 11:47 57.71984 -11.14976 32218 ft 459 kts 288°
2026-05-05 11:47 57.74068 -11.26242 32225 ft 455 kts 288°
2026-05-05 11:48 57.77144 -11.42997 32223 ft 455 kts 287°
2026-05-05 11:48 57.79190 -11.54220 32223 ft 455 kts 287°
2026-05-05 11:49 57.81238 -11.65527 32223 ft 457 kts 287°
2026-05-05 11:49 57.83261 -11.76761 32224 ft 457 kts 287°
2026-05-05 11:50 57.85289 -11.88092 32221 ft 457 kts 287°
2026-05-05 11:50 57.87287 -11.99328 32222 ft 457 kts 287°
2026-05-05 11:51 57.89287 -12.10640 32225 ft 457 kts 287°
2026-05-05 11:51 57.91287 -12.22019 32229 ft 454 kts 287°
2026-05-05 11:52 57.93254 -12.33288 32232 ft 454 kts 287°
2026-05-05 11:52 57.95210 -12.44556 32228 ft 454 kts 287°
2026-05-05 11:53 57.97157 -12.55846 32232 ft 454 kts 287°
2026-05-05 11:53 57.99107 -12.67222 32232 ft 454 kts 287°
2026-05-05 11:54 58.01036 -12.78544 32235 ft 454 kts 286°
2026-05-05 11:54 58.02959 -12.89909 32236 ft 454 kts 286°
2026-05-05 11:55 58.04869 -13.01266 32237 ft 455 kts 286°
2026-05-05 11:55 58.06742 -13.12474 32235 ft 455 kts 286°
2026-05-05 11:56 58.08631 -13.23848 32237 ft 455 kts 286°
2026-05-05 11:56 58.10516 -13.35276 32238 ft 455 kts 286°
2026-05-05 11:57 58.12387 -13.46685 32243 ft 455 kts 286°
2026-05-05 11:57 58.14255 -13.58154 32241 ft 455 kts 286°
2026-05-05 11:58 58.16103 -13.69579 32233 ft 456 kts 285°
2026-05-05 11:58 58.17918 -13.80871 32234 ft 456 kts 285°
2026-05-05 11:59 58.19757 -13.92384 32234 ft 456 kts 285°
2026-05-05 11:59 58.21578 -14.03865 32235 ft 456 kts 285°
2026-05-05 12:00 58.23402 -14.15444 32234 ft 456 kts 285°
2026-05-05 12:00 58.25204 -14.26957 32236 ft 454 kts 285°
2026-05-05 12:01 58.26981 -14.38388 32230 ft 453 kts 285°
2026-05-05 12:01 58.28751 -14.49854 32230 ft 453 kts 285°
2026-05-05 12:02 58.30508 -14.61314 32234 ft 452 kts 285°
2026-05-05 12:02 58.32257 -14.72795 32229 ft 452 kts 285°
2026-05-05 12:03 58.34005 -14.84352 32231 ft 453 kts 285°
2026-05-05 12:03 58.35732 -14.95853 32232 ft 453 kts 285°
2026-05-05 12:04 58.37452 -15.07381 32219 ft 453 kts 284°
2026-05-05 12:04 58.39160 -15.18914 32237 ft 454 kts 284°
2026-05-05 12:05 58.40876 -15.30581 32244 ft 455 kts 284°
2026-05-05 12:05 58.42563 -15.42133 32235 ft 451 kts 284°
2026-05-05 12:06 58.44239 -15.53693 32237 ft 451 kts 284°
2026-05-05 12:06 58.45891 -15.65170 32238 ft 451 kts 284°
2026-05-05 12:07 58.47543 -15.76727 32229 ft 451 kts 284°
2026-05-05 12:07 58.49196 -15.88377 32240 ft 452 kts 284°
2026-05-05 12:08 58.50826 -15.99955 32241 ft 452 kts 284°
2026-05-05 12:08 58.52449 -16.11558 32244 ft 453 kts 284°
2026-05-05 12:09 58.54069 -16.23235 32248 ft 453 kts 284°
2026-05-05 12:09 58.55673 -16.34876 32251 ft 453 kts 284°
2026-05-05 12:10 58.57269 -16.46551 32254 ft 454 kts 284°
2026-05-05 12:10 58.58862 -16.58290 32243 ft 457 kts 284°
2026-05-05 12:11 58.60448 -16.70070 32244 ft 457 kts 284°
2026-05-05 12:11 58.62022 -16.81850 32251 ft 457 kts 284°
2026-05-05 12:12 58.63587 -16.93656 32256 ft 457 kts 284°
2026-05-05 12:12 58.65144 -17.05493 32254 ft 457 kts 284°
2026-05-05 12:13 58.66690 -17.17336 32258 ft 458 kts 284°
2026-05-05 12:13 58.68231 -17.29235 32261 ft 460 kts 284°
2026-05-05 12:14 58.69763 -17.41166 32268 ft 460 kts 284°
2026-05-05 12:14 58.71292 -17.53167 32268 ft 465 kts 285°
2026-05-05 12:15 58.72826 -17.65300 32264 ft 464 kts 284°
2026-05-05 12:15 58.74333 -17.77333 32267 ft 464 kts 284°
2026-05-05 12:16 58.75841 -17.89471 32270 ft 465 kts 284°
2026-05-05 12:16 58.77337 -18.01608 32274 ft 468 kts 285°
2026-05-05 12:17 58.78825 -18.13786 32280 ft 467 kts 284°
2026-05-05 12:17 58.80299 -18.25959 32283 ft 467 kts 284°
2026-05-05 12:18 58.81768 -18.38196 32282 ft 467 kts 284°
2026-05-05 12:18 58.83221 -18.50403 32282 ft 467 kts 284°
2026-05-05 12:19 58.84662 -18.62619 32287 ft 468 kts 284°
2026-05-05 12:19 58.86106 -18.74952 32285 ft 469 kts 284°
2026-05-05 12:20 58.87530 -18.87245 32289 ft 469 kts 284°
2026-05-05 12:20 58.88939 -18.99512 32289 ft 469 kts 284°
2026-05-05 12:21 58.90342 -19.11847 32290 ft 469 kts 284°
2026-05-05 12:21 58.91727 -19.24125 32290 ft 469 kts 284°
2026-05-05 12:22 58.93112 -19.36518 32291 ft 469 kts 284°
2026-05-05 12:22 58.94476 -19.48840 32291 ft 469 kts 284°
2026-05-05 12:23 58.95830 -19.61189 32291 ft 469 kts 284°
2026-05-05 12:23 58.97176 -19.73589 32300 ft 467 kts 284°
2026-05-05 12:24 58.98495 -19.85847 32297 ft 465 kts 284°
2026-05-05 12:24 58.99798 -19.98077 32295 ft 465 kts 284°
2026-05-05 12:25 59.00925 -20.10484 32305 ft 465 kts 282°
2026-05-05 12:25 59.02031 -20.22790 32305 ft 465 kts 282°
2026-05-05 12:26 59.03097 -20.35152 32307 ft 465 kts 282°
2026-05-05 12:26 59.04177 -20.47589 32308 ft 466 kts 282°
2026-05-05 12:27 59.05228 -20.59963 32305 ft 466 kts 282°
2026-05-05 12:27 59.06104 -20.70329 32305 ft 466 kts 282°
2026-05-05 12:28 59.07309 -20.84806 32316 ft 466 kts 282°
2026-05-05 12:28 59.08161 -20.95163 32298 ft 465 kts 282°
2026-05-05 12:29 59.09172 -21.07566 32296 ft 465 kts 282°
2026-05-05 12:29 59.10169 -21.19981 32296 ft 465 kts 282°
2026-05-05 12:30 59.11154 -21.32381 32296 ft 465 kts 282°
2026-05-05 12:30 59.12127 -21.44800 32297 ft 465 kts 282°
2026-05-05 12:31 59.13095 -21.57302 32299 ft 465 kts 281°
2026-05-05 12:31 59.14043 -21.69713 32298 ft 466 kts 282°
2026-05-05 12:32 59.14987 -21.82242 32295 ft 466 kts 282°
2026-05-05 12:32 59.15912 -21.94677 32296 ft 466 kts 282°
2026-05-05 12:33 59.16831 -22.07214 32305 ft 465 kts 282°
2026-05-05 12:33 59.17731 -22.19640 32305 ft 464 kts 282°
2026-05-05 12:34 59.18620 -22.32093 32305 ft 464 kts 282°
2026-05-05 12:34 59.19499 -22.44565 32308 ft 466 kts 282°
2026-05-05 12:35 59.20365 -22.57058 32308 ft 466 kts 282°
2026-05-05 12:35 59.21225 -22.69626 32306 ft 466 kts 282°
2026-05-05 12:36 59.22066 -22.82102 32311 ft 466 kts 282°
2026-05-05 12:36 59.22902 -22.94689 32307 ft 466 kts 282°
2026-05-05 12:37 59.23725 -23.07268 32296 ft 466 kts 282°
2026-05-05 12:37 59.24533 -23.19795 32291 ft 467 kts 282°
2026-05-05 12:38 59.25333 -23.32432 32296 ft 465 kts 282°
2026-05-05 12:38 59.26112 -23.44911 32297 ft 462 kts 282°
2026-05-05 12:39 59.26876 -23.57320 32286 ft 462 kts 282°
2026-05-05 12:39 59.27634 -23.69858 32286 ft 462 kts 282°
2026-05-05 12:40 59.28375 -23.82312 32281 ft 462 kts 282°
2026-05-05 12:40 59.29105 -23.94786 32283 ft 463 kts 282°
2026-05-05 12:41 59.29824 -24.07295 32278 ft 463 kts 282°
2026-05-05 12:41 59.30532 -24.19807 32276 ft 463 kts 282°
2026-05-05 12:42 59.31231 -24.32392 32273 ft 463 kts 282°
2026-05-05 12:42 59.31914 -24.44904 32273 ft 464 kts 282°
2026-05-05 12:43 59.32585 -24.57426 32233 ft 464 kts 282°
2026-05-05 12:43 59.33250 -24.70057 32283 ft 465 kts 282°
2026-05-05 12:44 59.33901 -24.82689 32276 ft 465 kts 282°
2026-05-05 12:44 59.34539 -24.95266 32274 ft 465 kts 282°
2026-05-05 12:45 59.35162 -25.07822 32273 ft 465 kts 282°
2026-05-05 12:45 59.35777 -25.20470 32273 ft 465 kts 282°
2026-05-05 12:46 59.36380 -25.33092 32236 ft 465 kts 281°
2026-05-05 12:46 59.36972 -25.45773 32266 ft 466 kts 281°
2026-05-05 12:47 59.37548 -25.58379 32264 ft 466 kts 281°
2026-05-05 12:47 59.38117 -25.71080 32265 ft 465 kts 281°
2026-05-05 12:48 59.38665 -25.83632 32264 ft 462 kts 281°
2026-05-05 12:48 59.39205 -25.96234 32263 ft 462 kts 280°
2026-05-05 12:49 59.39728 -26.08745 32222 ft 462 kts 280°
2026-05-05 12:49 59.40243 -26.21340 32263 ft 463 kts 280°
2026-05-05 12:50 59.40743 -26.33913 32263 ft 464 kts 280°
2026-05-05 12:50 59.41236 -26.46579 32263 ft 464 kts 279°
2026-05-05 12:51 59.41713 -26.59164 32257 ft 464 kts 279°
2026-05-05 12:51 59.42181 -26.71821 32255 ft 464 kts 279°
2026-05-05 12:52 59.42634 -26.84429 32240 ft 464 kts 279°
2026-05-05 12:52 59.43080 -26.97167 32256 ft 465 kts 279°
2026-05-05 12:53 59.43509 -27.09807 32253 ft 464 kts 279°
2026-05-05 12:53 59.43929 -27.22497 32255 ft 464 kts 279°
2026-05-05 12:54 59.44531 -27.41444 32247 ft 464 kts 279°
2026-05-05 12:55 59.44918 -27.54100 32247 ft 464 kts 278°
2026-05-05 12:55 59.45294 -27.66793 32252 ft 464 kts 278°
2026-05-05 12:56 59.45656 -27.79430 32243 ft 465 kts 278°
2026-05-05 12:56 59.46008 -27.92147 32237 ft 465 kts 278°
2026-05-05 12:57 59.46346 -28.04800 32242 ft 465 kts 278°
2026-05-05 12:57 59.46673 -28.17526 32241 ft 465 kts 278°
2026-05-05 12:58 59.46985 -28.30150 32236 ft 463 kts 278°
2026-05-05 12:58 59.47288 -28.42806 32241 ft 466 kts 278°
2026-05-05 12:59 59.47576 -28.55552 32238 ft 465 kts 278°
2026-05-05 12:59 59.47854 -28.68230 32234 ft 465 kts 277°
2026-05-05 13:00 59.48247 -28.87296 32233 ft 465 kts 277°
2026-05-05 13:01 59.48728 -29.12758 32212 ft 466 kts 277°
2026-05-05 13:01 59.48952 -29.25585 32226 ft 467 kts 277°
2026-05-05 13:02 59.49161 -29.38308 32227 ft 467 kts 277°
2026-05-05 13:02 59.49357 -29.50998 32233 ft 464 kts 277°
2026-05-05 13:03 59.49542 -29.63685 32235 ft 464 kts 277°
2026-05-05 13:03 59.49714 -29.76364 32232 ft 464 kts 277°
2026-05-05 13:04 59.49874 -29.89049 32217 ft 464 kts 276°
2026-05-05 13:04 59.50174 -30.01819 32247 ft 461 kts 284°
2026-05-05 13:05 59.51266 -30.14261 32240 ft 461 kts 284°
2026-05-05 13:05 59.52351 -30.26634 32245 ft 461 kts 284°
2026-05-05 13:06 59.53432 -30.39117 32244 ft 461 kts 284°
2026-05-05 13:06 59.54499 -30.51574 32245 ft 461 kts 284°
2026-05-05 13:07 59.55543 -30.63929 32239 ft 459 kts 284°
2026-05-05 13:07 59.56584 -30.76351 32232 ft 464 kts 284°
2026-05-05 13:08 59.57622 -30.88945 32235 ft 463 kts 283°
2026-05-05 13:08 59.58645 -31.01463 32237 ft 463 kts 283°
2026-05-05 13:09 59.59651 -31.13955 32236 ft 463 kts 283°
2026-05-05 13:09 59.60654 -31.26549 32242 ft 463 kts 283°
2026-05-05 13:10 59.61637 -31.39063 32234 ft 463 kts 283°
2026-05-05 13:10 59.62610 -31.51602 32232 ft 462 kts 283°
2026-05-05 13:11 59.63576 -31.64205 32237 ft 465 kts 283°
2026-05-05 13:11 59.64526 -31.76790 32235 ft 465 kts 283°
2026-05-05 13:12 59.65467 -31.89395 32231 ft 465 kts 282°
2026-05-05 13:12 59.66396 -32.02031 32244 ft 465 kts 282°
2026-05-05 13:13 59.67316 -32.14706 32241 ft 465 kts 282°
2026-05-05 13:13 59.68224 -32.27384 32245 ft 465 kts 282°
2026-05-05 13:14 59.69115 -32.40013 32242 ft 465 kts 282°
2026-05-05 13:14 59.70006 -32.52795 32244 ft 468 kts 282°
2026-05-05 13:15 59.70879 -32.65560 32246 ft 468 kts 282°
2026-05-05 13:15 59.71743 -32.78331 32247 ft 469 kts 282°
2026-05-05 13:16 59.72596 -32.91152 32244 ft 469 kts 281°
2026-05-05 13:16 59.73432 -33.03908 32252 ft 469 kts 281°
2026-05-05 13:17 59.74260 -33.16740 32250 ft 469 kts 281°
2026-05-05 13:17 59.74941 -33.27444 32248 ft 469 kts 281°
2026-05-05 13:18 59.75753 -33.40379 32251 ft 474 kts 281°
2026-05-05 13:18 59.76547 -33.53275 32256 ft 472 kts 281°
2026-05-05 13:19 59.77332 -33.66187 32258 ft 472 kts 280°
2026-05-05 13:19 59.78104 -33.79150 32258 ft 472 kts 280°
2026-05-05 13:20 59.78863 -33.92085 32256 ft 472 kts 280°
2026-05-05 13:20 59.79609 -34.05023 32264 ft 472 kts 280°
2026-05-05 13:21 59.80343 -34.17981 32255 ft 473 kts 279°
2026-05-05 13:21 59.81069 -34.31034 32257 ft 478 kts 279°
2026-05-05 13:22 59.81786 -34.44170 32265 ft 477 kts 279°
2026-05-05 13:22 59.82491 -34.57305 32266 ft 477 kts 279°
2026-05-05 13:23 59.83181 -34.70444 32273 ft 477 kts 279°
2026-05-05 13:23 59.83855 -34.83518 32272 ft 477 kts 279°
2026-05-05 13:24 59.84518 -34.96634 32270 ft 477 kts 279°
2026-05-05 13:24 59.85176 -35.09880 32266 ft 484 kts 278°
2026-05-05 13:25 59.85818 -35.23163 32264 ft 482 kts 278°
2026-05-05 13:25 59.86449 -35.36437 32258 ft 482 kts 278°
2026-05-05 13:26 59.87063 -35.49674 32263 ft 482 kts 278°
2026-05-05 13:26 59.87669 -35.62991 32267 ft 482 kts 278°
2026-05-05 13:27 59.88259 -35.76286 32268 ft 483 kts 278°
2026-05-05 13:27 59.88838 -35.89627 32269 ft 483 kts 278°
2026-05-05 13:28 59.89401 -36.02925 32267 ft 483 kts 277°
2026-05-05 13:28 59.89953 -36.16276 32270 ft 483 kts 277°
2026-05-05 13:29 59.90489 -36.29570 32273 ft 483 kts 277°
2026-05-05 13:29 59.91011 -36.42857 32280 ft 481 kts 277°
2026-05-05 13:30 59.91522 -36.56214 32278 ft 481 kts 277°
2026-05-05 13:30 59.92016 -36.69471 32281 ft 482 kts 277°
2026-05-05 13:31 59.92501 -36.82832 32276 ft 487 kts 276°
2026-05-05 13:31 59.92975 -36.96332 32276 ft 487 kts 276°
2026-05-05 13:32 59.93434 -37.09754 32275 ft 487 kts 276°
2026-05-05 13:32 59.93881 -37.23227 32279 ft 487 kts 276°
2026-05-05 13:33 59.94316 -37.36777 32287 ft 487 kts 276°
2026-05-05 13:33 59.94734 -37.50222 32287 ft 486 kts 276°
2026-05-05 13:34 59.95138 -37.63635 32291 ft 486 kts 275°
2026-05-05 13:34 59.95533 -37.77212 32284 ft 494 kts 275°
2026-05-05 13:35 59.95915 -37.90917 32286 ft 494 kts 275°
2026-05-05 13:35 59.96285 -38.04594 32281 ft 494 kts 275°
2026-05-05 13:36 59.96639 -38.18292 32289 ft 494 kts 275°
2026-05-05 13:36 59.96981 -38.32020 32294 ft 494 kts 274°
2026-05-05 13:37 59.97306 -38.45674 32289 ft 492 kts 274°
2026-05-05 13:37 59.97617 -38.59253 32288 ft 496 kts 274°
2026-05-05 13:38 59.97917 -38.73103 32289 ft 498 kts 274°
2026-05-05 13:38 59.98204 -38.86907 32293 ft 498 kts 273°
2026-05-05 13:39 59.98475 -39.00749 32288 ft 498 kts 273°
2026-05-05 13:39 59.98732 -39.14542 32286 ft 498 kts 273°
2026-05-05 13:40 59.98975 -39.28375 32288 ft 499 kts 273°
2026-05-05 13:40 59.99204 -39.42210 32373 ft 495 kts 273°
2026-05-05 13:41 59.99419 -39.56135 32395 ft 505 kts 273°
2026-05-05 13:41 59.99522 -39.63118 32526 ft 500 kts 272°
2026-05-05 13:41 59.99620 -39.70037 32776 ft 499 kts 272°
2026-05-05 13:42 59.99714 -39.76934 33029 ft 499 kts 272°
2026-05-05 13:42 59.99805 -39.83916 33289 ft 501 kts 272°
2026-05-05 13:42 59.99893 -39.90886 33548 ft 499 kts 272°
2026-05-05 13:42 59.99976 -39.97798 33810 ft 499 kts 272°
2026-05-05 13:43 60.00184 -40.04659 34089 ft 497 kts 276°
2026-05-05 13:43 60.00446 -40.11556 34294 ft 499 kts 275°
2026-05-05 13:43 60.00932 -40.25372 34281 ft 497 kts 275°
2026-05-05 13:44 60.01434 -40.39231 34285 ft 504 kts 275°
2026-05-05 13:44 60.01905 -40.53138 34287 ft 504 kts 275°
2026-05-05 13:45 60.02376 -40.67180 34287 ft 505 kts 275°
2026-05-05 13:45 60.02825 -40.81176 34287 ft 504 kts 274°
2026-05-05 13:46 60.03259 -40.95086 34289 ft 504 kts 274°
2026-05-05 13:46 60.03682 -41.09118 34294 ft 505 kts 274°
2026-05-05 13:47 60.04088 -41.23140 34295 ft 503 kts 274°
2026-05-05 13:47 60.04483 -41.37234 34303 ft 512 kts 273°
2026-05-05 13:48 60.04862 -41.51379 34307 ft 512 kts 273°
2026-05-05 13:48 60.05233 -41.65673 34307 ft 512 kts 273°
2026-05-05 13:49 60.05582 -41.79829 34307 ft 510 kts 273°
2026-05-05 13:49 60.05919 -41.94064 34322 ft 513 kts 273°
2026-05-05 13:50 60.06240 -42.08314 34322 ft 511 kts 273°
2026-05-05 13:50 60.06547 -42.22535 34338 ft 516 kts 272°
2026-05-05 13:51 60.06840 -42.36946 34334 ft 519 kts 272°
2026-05-05 13:51 60.07121 -42.51459 34341 ft 524 kts 272°
2026-05-05 13:52 60.07386 -42.66029 34342 ft 522 kts 272°
2026-05-05 13:52 60.07634 -42.80545 34341 ft 525 kts 271°
2026-05-05 13:53 60.07869 -42.95162 34332 ft 523 kts 271°
2026-05-05 13:53 60.08086 -43.09720 34332 ft 526 kts 271°
2026-05-05 13:54 60.08287 -43.24270 34333 ft 521 kts 271°
2026-05-05 13:54 60.08471 -43.38762 34291 ft 520 kts 271°
2026-05-05 13:55 60.08639 -43.53231 34288 ft 520 kts 270°
2026-05-05 13:55 60.08791 -43.67739 34300 ft 519 kts 270°
2026-05-05 13:56 60.08928 -43.82132 34243 ft 520 kts 270°
2026-05-05 13:56 60.09048 -43.96598 34244 ft 519 kts 270°
2026-05-05 13:57 60.09155 -44.11115 34192 ft 521 kts 269°
2026-05-05 13:57 60.09243 -44.25623 34180 ft 520 kts 269°
2026-05-05 13:58 60.09317 -44.40112 34173 ft 520 kts 269°
2026-05-05 13:58 60.09374 -44.54538 34152 ft 521 kts 269°
2026-05-05 13:59 60.09431 -44.76338 34153 ft 521 kts 269°
2026-05-05 14:00 60.09451 -44.95677 34089 ft 521 kts 268°
2026-05-05 14:00 60.09446 -45.12582 34086 ft 521 kts 268°
2026-05-05 14:01 60.09424 -45.27083 34059 ft 521 kts 268°
2026-05-05 14:01 60.09387 -45.41637 34054 ft 521 kts 268°
2026-05-05 14:02 60.09333 -45.56099 34046 ft 521 kts 268°
2026-05-05 14:02 60.09263 -45.70669 34047 ft 521 kts 268°
2026-05-05 14:03 60.09178 -45.85196 34048 ft 521 kts 268°
2026-05-05 14:03 60.09077 -45.99722 34031 ft 525 kts 267°
2026-05-05 14:04 60.08958 -46.14353 34036 ft 526 kts 267°
2026-05-05 14:04 60.08824 -46.28974 34037 ft 526 kts 266°
2026-05-05 14:05 60.08673 -46.43673 34027 ft 526 kts 266°
2026-05-05 14:05 60.08506 -46.58342 34024 ft 526 kts 266°
2026-05-05 14:06 60.08323 -46.73003 34011 ft 527 kts 266°
2026-05-05 14:06 60.08124 -46.87579 34045 ft 526 kts 266°
2026-05-05 14:07 60.07905 -47.02428 34007 ft 533 kts 266°
2026-05-05 14:07 60.07671 -47.17265 33996 ft 533 kts 266°
2026-05-05 14:08 60.07419 -47.32098 33997 ft 533 kts 265°
2026-05-05 14:08 60.07197 -47.44443 33987 ft 533 kts 265°
2026-05-05 14:09 60.06866 -47.61734 33982 ft 533 kts 265°
2026-05-05 14:09 60.06617 -47.74089 33983 ft 533 kts 265°
2026-05-05 14:10 60.06299 -47.89021 33963 ft 539 kts 265°
2026-05-05 14:10 60.05964 -48.03964 33963 ft 539 kts 265°
2026-05-05 14:11 60.05613 -48.18908 33954 ft 539 kts 264°
2026-05-05 14:11 60.05242 -48.33912 33952 ft 538 kts 264°
2026-05-05 14:12 60.04858 -48.48795 33958 ft 539 kts 264°
2026-05-05 14:12 60.04455 -48.63779 33945 ft 538 kts 264°
2026-05-05 14:13 60.04036 -48.78709 33949 ft 541 kts 264°
2026-05-05 14:13 60.03595 -48.93782 33942 ft 543 kts 263°
2026-05-05 14:14 60.03137 -49.08901 33944 ft 543 kts 263°
2026-05-05 14:14 60.02663 -49.23929 33942 ft 543 kts 263°
2026-05-05 14:15 60.02170 -49.39029 33931 ft 543 kts 263°
2026-05-05 14:15 60.01660 -49.54119 33928 ft 543 kts 263°
2026-05-05 14:16 60.01136 -49.69127 33960 ft 543 kts 262°
2026-05-05 14:16 60.00591 -49.84181 33906 ft 545 kts 262°
2026-05-05 14:17 60.00014 -49.99279 33903 ft 544 kts 258°
2026-05-05 14:17 59.98660 -50.14079 33896 ft 540 kts 254°
2026-05-05 14:18 59.97214 -50.28785 33892 ft 540 kts 255°
2026-05-05 14:18 59.95783 -50.43485 33883 ft 540 kts 254°
2026-05-05 14:19 59.94314 -50.58150 33877 ft 543 kts 253°
2026-05-05 14:19 59.92824 -50.72988 33865 ft 544 kts 253°
2026-05-05 14:20 59.91323 -50.87685 33867 ft 543 kts 252°
2026-05-05 14:20 59.89803 -51.02435 33851 ft 543 kts 252°
2026-05-05 14:21 59.88259 -51.17227 33851 ft 543 kts 252°
2026-05-05 14:21 59.86714 -51.31856 33852 ft 543 kts 252°
2026-05-05 14:22 59.85131 -51.46661 33834 ft 549 kts 251°
2026-05-05 14:22 59.83532 -51.61508 33832 ft 547 kts 251°
2026-05-05 14:23 59.81915 -51.76273 33811 ft 547 kts 251°
2026-05-05 14:23 59.80284 -51.91057 33810 ft 547 kts 251°
2026-05-05 14:24 59.78644 -52.05735 33798 ft 547 kts 251°
2026-05-05 14:24 59.76978 -52.20481 33785 ft 550 kts 250°
2026-05-05 14:25 59.75279 -52.35365 33779 ft 552 kts 250°
2026-05-05 14:25 59.73572 -52.50159 33783 ft 552 kts 250°
2026-05-05 14:26 59.71838 -52.65022 33762 ft 552 kts 250°
2026-05-05 14:26 59.70091 -52.79843 33762 ft 552 kts 250°
2026-05-05 14:27 59.68326 -52.94651 33771 ft 553 kts 250°
2026-05-05 14:27 59.66543 -53.09451 33735 ft 555 kts 250°
2026-05-05 14:28 59.64740 -53.24280 33733 ft 555 kts 250°
2026-05-05 14:28 59.62925 -53.39041 33735 ft 555 kts 250°
2026-05-05 14:29 59.61083 -53.53875 33733 ft 555 kts 249°
2026-05-05 14:29 59.59219 -53.68733 33721 ft 555 kts 249°
2026-05-05 14:30 59.57357 -53.83426 33706 ft 555 kts 249°
2026-05-05 14:30 59.55467 -53.98189 33716 ft 556 kts 249°
2026-05-05 14:31 59.53555 -54.12988 33714 ft 556 kts 249°
2026-05-05 14:31 59.51629 -54.27733 33686 ft 556 kts 249°
2026-05-05 14:32 59.49692 -54.42434 33695 ft 555 kts 249°
2026-05-05 14:32 59.47736 -54.57129 33689 ft 557 kts 249°
2026-05-05 14:33 59.45758 -54.71853 33674 ft 557 kts 248°
2026-05-05 14:33 59.43771 -54.86500 33658 ft 556 kts 248°
2026-05-05 14:34 59.41758 -55.01202 33662 ft 556 kts 248°
2026-05-05 14:34 59.39731 -55.15871 33643 ft 556 kts 248°
2026-05-05 14:35 59.37699 -55.30435 33707 ft 556 kts 248°
2026-05-05 14:35 59.35635 -55.45098 33639 ft 557 kts 248°
2026-05-05 14:36 59.33566 -55.59664 33628 ft 557 kts 248°
2026-05-05 14:36 59.31465 -55.74310 33629 ft 557 kts 248°
2026-05-05 14:37 59.29353 -55.88909 33609 ft 560 kts 248°
2026-05-05 14:37 59.27226 -56.03488 33611 ft 559 kts 248°
2026-05-05 14:38 59.25074 -56.18095 33599 ft 557 kts 249°
2026-05-05 14:38 59.22922 -56.32591 33594 ft 554 kts 248°
2026-05-05 14:39 59.20754 -56.47043 33581 ft 554 kts 248°
2026-05-05 14:39 59.18587 -56.61385 33581 ft 553 kts 248°
2026-05-05 14:40 59.16394 -56.75765 33567 ft 554 kts 248°
2026-05-05 14:40 59.14192 -56.90087 33565 ft 552 kts 248°
2026-05-05 14:41 59.11979 -57.04369 33559 ft 548 kts 248°
2026-05-05 14:41 59.09756 -57.18578 33555 ft 547 kts 248°
2026-05-05 14:42 59.07541 -57.32634 33537 ft 547 kts 248°
2026-05-05 14:42 59.05293 -57.46772 33537 ft 547 kts 248°
2026-05-05 14:43 59.03032 -57.60886 33578 ft 546 kts 248°
2026-05-05 14:43 59.00772 -57.74882 33531 ft 543 kts 248°
2026-05-05 14:44 58.98498 -57.88839 33526 ft 543 kts 248°
2026-05-05 14:44 58.96217 -58.02751 33514 ft 543 kts 248°
2026-05-05 14:45 58.94011 -58.16697 33517 ft 543 kts 249°
2026-05-05 14:45 58.91755 -58.30674 33503 ft 543 kts 248°
2026-05-05 14:46 58.89501 -58.44580 33503 ft 542 kts 249°
2026-05-05 14:46 58.87237 -58.58436 33498 ft 541 kts 248°
2026-05-05 14:47 58.84945 -58.72335 33498 ft 540 kts 248°
2026-05-05 14:47 58.82659 -58.86114 33472 ft 542 kts 248°
2026-05-05 14:48 58.80337 -58.99982 33478 ft 542 kts 248°
2026-05-05 14:48 58.78014 -59.13764 33495 ft 542 kts 248°
2026-05-05 14:49 58.75682 -59.27486 33469 ft 540 kts 248°
2026-05-05 14:49 58.73321 -59.41274 33458 ft 539 kts 248°
2026-05-05 14:50 58.70963 -59.54942 33458 ft 539 kts 248°
2026-05-05 14:50 58.68591 -59.68590 33459 ft 539 kts 248°
2026-05-05 14:51 58.66195 -59.82276 33447 ft 540 kts 248°
2026-05-05 14:51 58.63790 -59.95913 33459 ft 538 kts 248°
2026-05-05 14:52 58.61375 -60.09498 33452 ft 538 kts 248°
2026-05-05 14:52 58.58944 -60.23078 33457 ft 538 kts 248°
2026-05-05 14:53 58.56509 -60.36581 33446 ft 538 kts 247°
2026-05-05 14:53 58.54053 -60.50109 33450 ft 538 kts 247°
2026-05-05 14:54 58.51586 -60.63592 33447 ft 538 kts 248°
2026-05-05 14:54 58.49107 -60.77053 33435 ft 534 kts 248°
2026-05-05 14:55 58.46637 -60.90365 33442 ft 533 kts 248°
2026-05-05 14:55 58.44145 -61.03707 33432 ft 533 kts 247°
2026-05-05 14:56 58.41651 -61.16962 33429 ft 532 kts 247°
2026-05-05 14:56 58.39122 -61.30313 33429 ft 532 kts 247°
2026-05-05 14:57 58.36609 -61.43489 33429 ft 533 kts 247°
2026-05-05 14:57 58.34055 -61.56785 33429 ft 533 kts 247°
2026-05-05 14:58 58.31509 -61.69956 33431 ft 531 kts 247°
2026-05-05 14:58 58.28951 -61.83096 33427 ft 530 kts 246°
2026-05-05 14:59 58.26376 -61.96236 33427 ft 530 kts 246°
2026-05-05 14:59 58.23797 -62.09306 33439 ft 529 kts 247°
2026-05-05 15:00 58.21632 -62.20222 33442 ft 526 kts 247°
2026-05-05 15:00 58.18625 -62.35267 33443 ft 525 kts 246°
2026-05-05 15:01 58.16021 -62.48215 33444 ft 525 kts 246°
2026-05-05 15:01 58.13403 -62.61145 33434 ft 524 kts 246°
2026-05-05 15:02 58.11227 -62.71822 33432 ft 524 kts 246°
2026-05-05 15:02 58.08161 -62.86780 33439 ft 523 kts 246°
2026-05-05 15:03 58.05519 -62.99582 33428 ft 523 kts 246°
2026-05-05 15:03 58.02865 -63.12359 33425 ft 523 kts 246°
2026-05-05 15:04 58.00637 -63.23020 33425 ft 523 kts 246°
2026-05-05 15:04 57.98713 -63.36312 33429 ft 526 kts 256°
2026-05-05 15:05 57.96314 -63.56522 33410 ft 529 kts 255°
2026-05-05 15:06 57.94672 -63.70017 33419 ft 526 kts 255°
2026-05-05 15:06 57.93042 -63.83359 33405 ft 525 kts 255°
2026-05-05 15:07 57.91381 -63.96753 33401 ft 525 kts 255°
2026-05-05 15:07 57.89717 -64.10103 33392 ft 525 kts 255°
2026-05-05 15:08 57.88028 -64.23479 33390 ft 525 kts 255°
2026-05-05 15:08 57.86341 -64.36757 33390 ft 525 kts 255°
2026-05-05 15:09 57.84629 -64.50085 33394 ft 523 kts 255°
2026-05-05 15:09 57.82917 -64.63304 33395 ft 520 kts 255°
2026-05-05 15:10 57.81202 -64.76424 33391 ft 519 kts 255°
2026-05-05 15:10 57.79460 -64.89636 33389 ft 519 kts 254°
2026-05-05 15:11 57.77724 -65.02682 33403 ft 518 kts 254°
2026-05-05 15:11 57.75961 -65.15823 33403 ft 518 kts 254°
2026-05-05 15:12 57.74197 -65.28852 33428 ft 518 kts 254°
2026-05-05 15:12 57.72420 -65.41874 33423 ft 515 kts 255°
2026-05-05 15:13 57.70637 -65.54821 33413 ft 512 kts 255°
2026-05-05 15:13 57.68850 -65.67692 33424 ft 512 kts 255°
2026-05-05 15:14 57.67043 -65.80602 33434 ft 511 kts 255°
2026-05-05 15:14 57.65232 -65.93436 33433 ft 511 kts 254°
2026-05-05 15:15 57.63412 -66.06232 33438 ft 511 kts 254°
2026-05-05 15:15 57.61579 -66.18999 33436 ft 511 kts 255°
2026-05-05 15:16 57.59732 -66.31785 33432 ft 507 kts 255°
2026-05-05 15:16 57.57892 -66.44402 33434 ft 506 kts 255°
2026-05-05 15:17 57.56030 -66.57086 33447 ft 507 kts 254°
2026-05-05 15:17 57.54160 -66.69715 33449 ft 506 kts 254°
2026-05-05 15:18 57.52287 -66.82270 33452 ft 506 kts 254°
2026-05-05 15:18 57.50388 -66.94901 33451 ft 506 kts 254°
2026-05-05 15:19 57.48492 -67.07416 33461 ft 505 kts 254°
2026-05-05 15:19 57.46565 -67.20041 33463 ft 504 kts 254°
2026-05-05 15:20 57.44644 -67.32532 33460 ft 505 kts 253°
2026-05-05 15:20 57.42701 -67.45073 33468 ft 505 kts 253°
2026-05-05 15:21 57.40747 -67.57590 33467 ft 505 kts 253°
2026-05-05 15:21 57.38775 -67.70130 33466 ft 505 kts 253°
2026-05-05 15:22 57.36804 -67.82566 33482 ft 505 kts 253°
2026-05-05 15:22 57.34806 -67.95087 33483 ft 504 kts 253°
2026-05-05 15:23 57.32808 -68.07518 33490 ft 507 kts 252°
2026-05-05 15:23 57.30790 -68.19980 33491 ft 507 kts 252°
2026-05-05 15:24 57.28756 -68.32454 33496 ft 507 kts 252°
2026-05-05 15:24 57.26704 -68.44945 33501 ft 507 kts 252°
2026-05-05 15:25 57.24635 -68.57450 33504 ft 507 kts 252°
2026-05-05 15:25 57.22571 -68.69843 33507 ft 507 kts 252°
2026-05-05 15:26 57.20488 -68.82259 33511 ft 505 kts 251°
2026-05-05 15:26 57.18405 -68.94580 33514 ft 504 kts 251°
2026-05-05 15:27 57.16311 -69.06890 33513 ft 504 kts 251°
2026-05-05 15:27 57.14200 -69.19218 33513 ft 504 kts 251°
2026-05-05 15:28 57.12088 -69.31464 33519 ft 504 kts 251°
2026-05-05 15:28 57.09952 -69.43761 33526 ft 504 kts 251°
2026-05-05 15:29 57.07810 -69.56016 33528 ft 506 kts 250°
2026-05-05 15:29 57.05643 -69.68324 33529 ft 506 kts 250°
2026-05-05 15:30 57.03471 -69.80588 33540 ft 506 kts 250°
2026-05-05 15:30 57.01275 -69.92892 33540 ft 506 kts 250°
2026-05-05 15:31 56.99412 -70.05372 33540 ft 509 kts 257°
2026-05-05 15:31 56.98107 -70.18022 33550 ft 508 kts 257°
2026-05-05 15:32 56.96720 -70.30801 33551 ft 512 kts 257°
2026-05-05 15:32 56.95350 -70.43548 33557 ft 511 kts 257°
2026-05-05 15:33 56.93950 -70.56336 33555 ft 510 kts 257°
2026-05-05 15:33 56.92545 -70.69069 33554 ft 510 kts 257°
2026-05-05 15:34 56.91134 -70.81729 33551 ft 510 kts 256°
2026-05-05 15:34 56.89702 -70.94445 33560 ft 512 kts 256°
2026-05-05 15:35 56.88255 -71.07175 33558 ft 512 kts 256°
2026-05-05 15:35 56.86788 -71.19950 33560 ft 512 kts 256°
2026-05-05 15:36 56.85312 -71.32685 33559 ft 512 kts 256°
2026-05-05 15:36 56.83828 -71.45375 33562 ft 512 kts 256°
2026-05-05 15:37 56.82333 -71.58030 33542 ft 512 kts 256°
2026-05-05 15:37 56.80818 -71.70736 33553 ft 512 kts 256°
2026-05-05 15:38 56.79288 -71.83446 33549 ft 512 kts 255°
2026-05-05 15:38 56.77750 -71.96112 33552 ft 512 kts 255°
2026-05-05 15:39 56.76197 -72.08782 33544 ft 512 kts 255°
2026-05-05 15:39 56.74630 -72.21453 33544 ft 512 kts 255°
2026-05-05 15:40 56.73046 -72.34141 33556 ft 516 kts 255°
2026-05-05 15:40 56.71452 -72.46806 33553 ft 514 kts 255°
2026-05-05 15:41 56.69839 -72.59502 33561 ft 514 kts 255°
2026-05-05 15:41 56.68216 -72.72166 33561 ft 513 kts 255°
2026-05-05 15:42 56.66591 -72.84733 33556 ft 513 kts 254°
2026-05-05 15:42 56.64942 -72.97381 33559 ft 515 kts 254°
2026-05-05 15:43 56.63281 -73.10008 33554 ft 515 kts 254°
2026-05-05 15:43 56.61600 -73.22678 33554 ft 515 kts 254°
2026-05-05 15:44 56.59912 -73.35292 33554 ft 515 kts 254°
2026-05-05 15:44 56.58208 -73.47919 33550 ft 515 kts 254°
2026-05-05 15:45 56.56491 -73.60541 33567 ft 516 kts 253°
2026-05-05 15:45 56.54765 -73.73121 33546 ft 513 kts 253°
2026-05-05 15:46 56.53036 -73.85618 33535 ft 511 kts 253°
2026-05-05 15:46 56.51304 -73.98036 33534 ft 511 kts 253°
2026-05-05 15:47 56.49550 -74.10512 33528 ft 511 kts 253°
2026-05-05 15:47 56.47791 -74.22922 33522 ft 511 kts 253°
2026-05-05 15:48 56.46013 -74.35369 33521 ft 511 kts 253°
2026-05-05 15:48 56.44224 -74.47793 33515 ft 511 kts 253°
2026-05-05 15:49 56.42422 -74.60209 33511 ft 511 kts 252°
2026-05-05 15:49 56.40611 -74.72595 33503 ft 510 kts 252°
2026-05-05 15:50 56.38780 -74.85010 33498 ft 509 kts 252°
2026-05-05 15:50 56.36956 -74.97290 33501 ft 510 kts 252°
2026-05-05 15:51 56.35105 -75.09659 33487 ft 510 kts 252°
2026-05-05 15:51 56.33247 -75.21979 33482 ft 510 kts 252°
2026-05-05 15:52 56.31373 -75.34311 33483 ft 510 kts 252°
2026-05-05 15:52 56.29491 -75.46603 33467 ft 510 kts 252°
2026-05-05 15:53 56.27590 -75.58927 33463 ft 510 kts 252°
2026-05-05 15:53 56.25680 -75.71221 33454 ft 510 kts 252°
2026-05-05 15:54 56.23758 -75.83499 33447 ft 510 kts 252°
2026-05-05 15:54 56.21819 -75.95794 33447 ft 510 kts 252°
2026-05-05 15:55 56.19878 -76.08019 33443 ft 510 kts 252°
2026-05-05 15:55 56.17909 -76.20323 33446 ft 511 kts 252°
2026-05-05 15:56 56.15946 -76.32508 33435 ft 510 kts 252°
2026-05-05 15:56 56.14299 -76.42662 33435 ft 510 kts 252°
2026-05-05 15:57 56.11975 -76.56893 33429 ft 510 kts 251°
2026-05-05 15:57 56.10302 -76.67060 33431 ft 511 kts 251°
2026-05-05 15:58 56.08279 -76.79284 33422 ft 510 kts 251°
2026-05-05 15:58 56.06262 -76.91377 33422 ft 508 kts 251°
2026-05-05 15:59 56.04224 -77.03520 33419 ft 508 kts 251°
2026-05-05 15:59 56.02183 -77.15593 33419 ft 508 kts 251°
2026-05-05 16:00 56.00138 -77.27613 33419 ft 508 kts 251°
2026-05-05 16:00 55.98060 -77.39736 33410 ft 508 kts 251°
2026-05-05 16:01 55.95989 -77.51744 33417 ft 509 kts 251°
2026-05-05 16:01 55.93888 -77.63843 33414 ft 509 kts 251°
2026-05-05 16:02 55.91796 -77.75810 33415 ft 507 kts 251°
2026-05-05 16:02 55.89683 -77.87815 33407 ft 507 kts 251°
2026-05-05 16:03 55.87559 -77.99807 33407 ft 507 kts 251°
2026-05-05 16:03 55.85419 -78.11807 33409 ft 507 kts 250°
2026-05-05 16:04 55.83274 -78.23758 33399 ft 507 kts 250°
2026-05-05 16:04 55.81124 -78.35658 33396 ft 507 kts 250°
2026-05-05 16:05 55.78957 -78.47575 33393 ft 507 kts 250°
2026-05-05 16:05 55.76763 -78.59564 33379 ft 508 kts 250°
2026-05-05 16:06 55.74581 -78.71415 33386 ft 508 kts 250°
2026-05-05 16:06 55.72370 -78.83342 33386 ft 508 kts 250°
2026-05-05 16:07 55.70155 -78.95219 33386 ft 508 kts 250°
2026-05-05 16:07 55.67924 -79.07104 33381 ft 508 kts 250°
2026-05-05 16:08 55.65681 -79.18979 33382 ft 508 kts 249°
2026-05-05 16:08 55.63427 -79.30839 33385 ft 508 kts 249°
2026-05-05 16:09 55.61170 -79.42639 33381 ft 509 kts 249°
2026-05-05 16:09 55.58891 -79.54481 33386 ft 509 kts 249°
2026-05-05 16:10 55.56609 -79.66270 33386 ft 509 kts 249°
2026-05-05 16:10 55.54303 -79.78110 33378 ft 509 kts 249°
2026-05-05 16:11 55.51998 -79.89866 33371 ft 509 kts 249°
2026-05-05 16:12 55.47905 -80.13884 33361 ft 512 kts 253°
2026-05-05 16:13 55.43271 -80.44122 33364 ft 512 kts 253°
2026-05-05 16:13 55.41395 -80.56182 33365 ft 513 kts 253°
2026-05-05 16:14 55.37592 -80.80424 33361 ft 514 kts 252°
2026-05-05 16:15 55.33737 -81.04639 33355 ft 514 kts 252°
2026-05-05 16:16 55.29839 -81.28777 33362 ft 514 kts 252°
2026-05-05 16:17 55.26890 -81.46813 33354 ft 514 kts 252°
2026-05-05 16:18 55.23913 -81.64832 33354 ft 514 kts 252°
2026-05-05 16:19 55.20917 -81.82780 33352 ft 510 kts 252°
2026-05-05 16:19 55.17910 -82.00609 33344 ft 510 kts 251°
2026-05-05 16:20 55.13866 -82.24304 33346 ft 510 kts 251°
2026-05-05 16:22 55.08733 -82.53935 33338 ft 510 kts 251°
2026-05-05 16:23 55.04574 -82.77590 33350 ft 510 kts 251°
2026-05-05 16:23 55.01432 -82.95258 33340 ft 510 kts 251°
2026-05-05 16:24 54.99315 -83.07067 33341 ft 511 kts 251°
2026-05-05 16:25 54.96120 -83.24747 33333 ft 511 kts 251°
2026-05-05 16:25 54.92900 -83.42394 33333 ft 511 kts 251°
2026-05-05 16:26 54.88564 -83.65897 33328 ft 511 kts 251°
2026-05-05 16:27 54.86388 -83.77576 33328 ft 511 kts 251°
2026-05-05 16:27 54.84184 -83.89341 33329 ft 512 kts 251°
2026-05-05 16:28 54.81968 -84.01092 33332 ft 512 kts 251°
2026-05-05 16:28 54.79754 -84.12758 33328 ft 512 kts 251°
2026-05-05 16:29 54.77511 -84.24504 33334 ft 512 kts 251°
2026-05-05 16:29 54.75274 -84.36152 33334 ft 512 kts 251°
2026-05-05 16:30 54.73014 -84.47846 33331 ft 513 kts 250°
2026-05-05 16:30 54.70738 -84.59548 33331 ft 513 kts 250°
2026-05-05 16:31 54.68459 -84.71199 33326 ft 512 kts 251°
2026-05-05 16:31 54.66170 -84.82831 33329 ft 512 kts 250°
2026-05-05 16:32 54.63861 -84.94493 33333 ft 511 kts 250°
2026-05-05 16:32 54.61548 -85.06104 33339 ft 512 kts 250°
2026-05-05 16:33 54.59230 -85.17674 33328 ft 511 kts 250°
2026-05-05 16:33 54.56905 -85.29213 33338 ft 511 kts 250°
2026-05-05 16:34 54.54558 -85.40790 33345 ft 511 kts 250°
2026-05-05 16:34 54.52216 -85.52273 33347 ft 511 kts 250°
2026-05-05 16:35 54.49853 -85.63793 33345 ft 511 kts 250°
2026-05-05 16:35 54.47482 -85.75289 33352 ft 511 kts 250°
2026-05-05 16:36 54.45080 -85.86869 33358 ft 511 kts 250°
2026-05-05 16:36 54.42696 -85.98293 33379 ft 509 kts 250°
2026-05-05 16:37 54.40292 -86.09750 33378 ft 510 kts 250°
2026-05-05 16:37 54.37871 -86.21220 33394 ft 510 kts 250°
2026-05-05 16:38 54.35450 -86.32626 33381 ft 510 kts 250°
2026-05-05 16:38 54.33006 -86.44075 33395 ft 511 kts 250°
2026-05-05 16:39 54.30549 -86.55524 33399 ft 511 kts 250°
2026-05-05 16:39 54.28082 -86.66951 33412 ft 511 kts 250°
2026-05-05 16:40 54.25610 -86.78340 33410 ft 512 kts 249°
2026-05-05 16:40 54.23111 -86.89794 33428 ft 513 kts 249°
2026-05-05 16:41 54.20622 -87.01130 33441 ft 512 kts 250°
2026-05-05 16:41 54.18109 -87.12521 33457 ft 513 kts 250°
2026-05-05 16:42 54.15587 -87.23886 33443 ft 512 kts 249°
2026-05-05 16:42 54.13063 -87.35200 33463 ft 512 kts 249°
2026-05-05 16:43 54.10516 -87.46554 33464 ft 512 kts 249°
2026-05-05 16:43 54.07966 -87.57864 33480 ft 512 kts 249°
2026-05-05 16:44 54.05401 -87.69175 33492 ft 512 kts 249°
2026-05-05 16:44 54.02837 -87.80424 33491 ft 512 kts 249°
2026-05-05 16:45 54.00254 -87.91695 33502 ft 511 kts 249°
2026-05-05 16:45 53.97655 -88.02971 33511 ft 510 kts 249°
2026-05-05 16:46 53.95061 -88.14176 33520 ft 510 kts 249°
2026-05-05 16:46 53.92457 -88.25357 33524 ft 510 kts 249°
2026-05-05 16:47 53.89842 -88.36530 33534 ft 511 kts 248°
2026-05-05 16:47 53.87214 -88.47701 33526 ft 510 kts 248°
2026-05-05 16:48 53.84579 -88.58844 33541 ft 510 kts 248°
2026-05-05 16:48 53.81936 -88.69959 33545 ft 509 kts 248°
2026-05-05 16:49 53.79280 -88.81074 33561 ft 509 kts 248°
2026-05-05 16:49 53.76618 -88.92156 33562 ft 508 kts 248°
2026-05-05 16:50 53.73947 -89.03223 33575 ft 508 kts 248°
2026-05-05 16:50 53.71718 -89.12414 33573 ft 507 kts 248°
2026-05-05 16:51 53.68590 -89.25247 33579 ft 507 kts 248°
2026-05-05 16:51 53.66354 -89.34373 33578 ft 507 kts 248°
2026-05-05 16:52 53.63200 -89.47180 33592 ft 508 kts 248°
2026-05-05 16:52 53.60973 -89.56182 33591 ft 508 kts 248°
2026-05-05 16:53 53.58250 -89.67138 33602 ft 508 kts 247°
2026-05-05 16:53 53.55512 -89.78099 33608 ft 507 kts 247°
2026-05-05 16:54 53.52788 -89.88953 33602 ft 507 kts 247°
2026-05-05 16:54 53.50031 -89.99851 33616 ft 507 kts 245°
2026-05-05 16:55 53.46901 -90.10498 33629 ft 505 kts 244°
2026-05-05 16:55 53.43791 -90.21041 33650 ft 506 kts 243°
2026-05-05 16:56 53.40645 -90.31600 33648 ft 506 kts 243°
2026-05-05 16:56 53.37514 -90.42098 33665 ft 506 kts 243°
2026-05-05 16:57 53.34350 -90.52640 33665 ft 505 kts 243°
2026-05-05 16:57 53.31199 -90.63102 33683 ft 504 kts 243°
2026-05-05 16:58 53.28042 -90.73534 33678 ft 504 kts 243°
2026-05-05 16:58 53.24865 -90.83988 33699 ft 504 kts 243°
2026-05-05 16:59 53.21679 -90.94426 33702 ft 504 kts 243°
2026-05-05 16:59 53.18496 -91.04809 33714 ft 503 kts 243°
2026-05-05 17:00 53.15296 -91.15203 33712 ft 502 kts 243°
2026-05-05 17:00 53.12097 -91.25549 33730 ft 503 kts 243°
2026-05-05 17:01 53.08887 -91.35888 33732 ft 503 kts 243°
2026-05-05 17:01 53.05690 -91.46138 33748 ft 502 kts 243°
2026-05-05 17:02 53.02462 -91.56444 33943 ft 497 kts 243°
2026-05-05 17:02 53.00876 -91.61492 34189 ft 498 kts 243°
2026-05-05 17:02 52.99262 -91.66620 34454 ft 496 kts 243°
2026-05-05 17:03 52.97664 -91.71685 34690 ft 496 kts 243°
2026-05-05 17:03 52.96067 -91.76732 34934 ft 496 kts 243°
2026-05-05 17:03 52.94474 -91.81763 35186 ft 496 kts 243°
2026-05-05 17:03 52.92897 -91.86733 35443 ft 497 kts 242°
2026-05-05 17:04 52.91300 -91.91751 35693 ft 496 kts 243°
2026-05-05 17:04 52.89672 -91.96855 35953 ft 498 kts 243°
2026-05-05 17:04 52.88062 -92.01896 36207 ft 497 kts 243°
2026-05-05 17:04 52.86457 -92.06912 36470 ft 497 kts 243°
2026-05-05 17:05 52.84828 -92.11991 36735 ft 498 kts 243°
2026-05-05 17:05 52.83210 -92.17020 36998 ft 497 kts 243°
2026-05-05 17:05 52.81570 -92.22109 37276 ft 498 kts 243°
2026-05-05 17:05 52.79955 -92.27117 37545 ft 498 kts 243°
2026-05-05 17:06 52.78315 -92.32191 37788 ft 500 kts 242°
2026-05-05 17:06 52.76680 -92.37235 37791 ft 502 kts 242°
2026-05-05 17:06 52.73377 -92.47390 37799 ft 503 kts 243°
2026-05-05 17:07 52.70064 -92.57542 37803 ft 502 kts 243°
2026-05-05 17:07 52.66752 -92.67643 37807 ft 502 kts 242°
2026-05-05 17:08 52.63407 -92.77807 37808 ft 502 kts 242°
2026-05-05 17:08 52.60081 -92.87865 37821 ft 503 kts 243°
2026-05-05 17:09 52.56719 -92.98000 37824 ft 503 kts 242°
2026-05-05 17:09 52.53357 -93.08086 37839 ft 503 kts 242°
2026-05-05 17:10 52.50004 -93.18109 37836 ft 503 kts 243°
2026-05-05 17:10 52.46613 -93.28203 37854 ft 503 kts 242°
2026-05-05 17:11 52.43238 -93.38208 37854 ft 502 kts 242°
2026-05-05 17:11 52.39865 -93.48167 37848 ft 502 kts 243°
2026-05-05 17:12 52.36470 -93.58150 37858 ft 502 kts 243°
2026-05-05 17:12 52.33056 -93.68150 37864 ft 503 kts 242°
2026-05-05 17:13 52.29659 -93.78062 37874 ft 503 kts 242°
2026-05-05 17:13 52.26222 -93.88044 37876 ft 502 kts 242°
2026-05-05 17:14 52.22812 -93.97915 37867 ft 502 kts 242°
2026-05-05 17:14 52.19358 -94.07871 37874 ft 502 kts 242°
2026-05-05 17:15 52.15924 -94.17739 37889 ft 502 kts 241°
2026-05-05 17:15 52.12495 -94.27541 37888 ft 501 kts 242°
2026-05-05 17:16 52.09026 -94.37425 37902 ft 501 kts 242°
2026-05-05 17:16 52.05557 -94.47267 37904 ft 502 kts 241°
2026-05-05 17:17 52.02093 -94.57062 37919 ft 502 kts 241°
2026-05-05 17:17 51.98615 -94.66854 37914 ft 501 kts 242°
2026-05-05 17:18 51.95106 -94.76694 37914 ft 501 kts 242°
2026-05-05 17:18 51.91617 -94.86444 37922 ft 500 kts 241°
2026-05-05 17:19 51.88133 -94.96141 37917 ft 500 kts 240°
2026-05-05 17:19 51.84639 -95.05825 37915 ft 499 kts 242°
2026-05-05 17:20 51.81129 -95.15523 37930 ft 500 kts 242°
2026-05-05 17:20 51.77610 -95.25198 37937 ft 500 kts 241°
2026-05-05 17:21 51.74092 -95.34846 37922 ft 500 kts 241°
2026-05-05 17:22 51.68770 -95.49360 37943 ft 500 kts 240°
2026-05-05 17:22 51.65235 -95.58961 37947 ft 498 kts 241°
2026-05-05 17:23 51.61696 -95.68528 37949 ft 497 kts 241°
2026-05-05 17:23 51.58152 -95.78079 37952 ft 498 kts 240°
2026-05-05 17:24 51.54594 -95.87633 37950 ft 498 kts 240°
2026-05-05 17:24 51.51023 -95.97187 37957 ft 498 kts 240°
2026-05-05 17:25 51.47439 -96.06729 37962 ft 499 kts 241°
2026-05-05 17:25 51.43877 -96.16190 37980 ft 499 kts 241°
2026-05-05 17:26 51.40274 -96.25719 37971 ft 499 kts 240°
2026-05-05 17:26 51.36672 -96.35209 37984 ft 497 kts 241°
2026-05-05 17:27 51.33091 -96.44613 37979 ft 497 kts 240°
2026-05-05 17:27 51.29472 -96.54075 37987 ft 497 kts 240°
2026-05-05 17:28 51.25940 -96.63282 37989 ft 497 kts 241°
2026-05-05 17:28 51.22317 -96.72695 37998 ft 498 kts 241°
2026-05-05 17:29 51.18658 -96.82161 38000 ft 499 kts 240°
2026-05-05 17:29 51.15028 -96.91515 38003 ft 499 kts 240°
2026-05-05 17:30 51.11378 -97.00895 38007 ft 498 kts 240°
2026-05-05 17:30 51.07725 -97.10237 38013 ft 496 kts 240°
2026-05-05 17:31 51.04091 -97.19509 38005 ft 497 kts 240°
2026-05-05 17:31 51.00423 -97.28825 38014 ft 497 kts 240°
2026-05-05 17:32 50.96745 -97.38140 38021 ft 497 kts 240°
2026-05-05 17:32 50.93081 -97.47379 38022 ft 497 kts 239°
2026-05-05 17:33 50.89378 -97.56689 38016 ft 498 kts 239°
2026-05-05 17:33 50.85676 -97.65964 38017 ft 498 kts 239°
2026-05-05 17:34 50.81982 -97.75182 38023 ft 498 kts 239°
2026-05-05 17:34 50.78264 -97.84429 38024 ft 498 kts 239°
2026-05-05 17:35 50.74528 -97.93685 38034 ft 498 kts 239°
2026-05-05 17:35 50.70789 -98.02920 38037 ft 499 kts 240°
2026-05-05 17:36 50.67050 -98.12118 38055 ft 499 kts 239°
2026-05-05 17:36 50.63310 -98.21289 38041 ft 499 kts 239°
2026-05-05 17:37 50.59530 -98.30525 38049 ft 499 kts 239°
2026-05-05 17:37 50.55771 -98.39677 38039 ft 498 kts 239°
2026-05-05 17:38 50.52016 -98.48788 38049 ft 498 kts 239°
2026-05-05 17:38 50.48238 -98.57921 38048 ft 498 kts 239°
2026-05-05 17:39 50.44480 -98.66977 38050 ft 498 kts 239°
2026-05-05 17:39 50.40393 -98.75752 38060 ft 500 kts 231°
2026-05-05 17:40 50.35833 -98.83956 38062 ft 500 kts 231°
2026-05-05 17:40 50.31277 -98.92214 38056 ft 500 kts 231°
2026-05-05 17:41 50.26711 -99.00421 38063 ft 499 kts 231°
2026-05-05 17:41 50.22156 -99.08601 38061 ft 499 kts 231°
2026-05-05 17:42 50.17595 -99.16758 38061 ft 498 kts 231°
2026-05-05 17:42 50.13041 -99.24881 38050 ft 499 kts 231°
2026-05-05 17:43 50.09231 -99.31655 38054 ft 499 kts 231°
2026-05-05 17:43 50.04666 -99.39749 38055 ft 499 kts 231°
2026-05-05 17:44 50.00063 -99.47884 38055 ft 498 kts 231°
2026-05-05 17:44 49.95502 -99.55919 38057 ft 498 kts 231°
2026-05-05 17:45 49.90913 -99.63981 38028 ft 499 kts 230°
2026-05-05 17:45 49.86306 -99.72047 38023 ft 499 kts 230°
2026-05-05 17:46 49.81729 -99.80037 38017 ft 499 kts 230°
2026-05-05 17:46 49.77110 -99.88074 38016 ft 499 kts 230°
2026-05-05 17:47 49.72499 -99.96072 38028 ft 496 kts 230°
2026-05-05 17:47 49.67923 -100.03987 38037 ft 497 kts 230°
2026-05-05 17:48 49.63298 -100.11959 38046 ft 497 kts 230°
2026-05-05 17:48 49.58712 -100.19844 38056 ft 497 kts 230°
2026-05-05 17:49 49.54092 -100.27760 38059 ft 497 kts 230°
2026-05-05 17:49 49.49456 -100.35679 38063 ft 496 kts 230°
2026-05-05 17:50 49.44896 -100.43445 38068 ft 496 kts 230°
2026-05-05 17:50 49.40289 -100.51268 38068 ft 496 kts 230°
2026-05-05 17:51 49.35653 -100.59116 38069 ft 496 kts 230°
2026-05-05 17:51 49.31015 -100.66944 38066 ft 496 kts 230°
2026-05-05 17:52 49.26363 -100.74772 38064 ft 497 kts 230°
2026-05-05 17:52 49.21724 -100.82555 38061 ft 496 kts 230°
2026-05-05 17:53 49.17051 -100.90370 38062 ft 496 kts 230°
2026-05-05 17:53 49.12394 -100.98137 38064 ft 496 kts 230°
2026-05-05 17:54 49.07727 -101.05896 38071 ft 496 kts 230°
2026-05-05 17:54 49.03055 -101.13641 38074 ft 498 kts 230°
2026-05-05 17:55 48.98358 -101.21403 38072 ft 497 kts 230°
2026-05-05 17:55 48.93667 -101.29131 38064 ft 495 kts 230°
2026-05-05 17:56 48.88997 -101.36805 38071 ft 494 kts 230°
2026-05-05 17:56 48.84345 -101.44425 38061 ft 494 kts 230°
2026-05-05 17:57 48.79649 -101.52096 38082 ft 496 kts 230°
2026-05-05 17:57 48.74954 -101.59737 38077 ft 496 kts 230°
2026-05-05 17:58 48.70238 -101.67397 38073 ft 495 kts 230°
2026-05-05 17:58 48.65551 -101.74981 38059 ft 494 kts 230°
2026-05-05 17:59 48.60870 -101.82538 38061 ft 494 kts 230°
2026-05-05 17:59 48.56158 -101.90121 38055 ft 494 kts 230°
2026-05-05 18:00 48.51453 -101.97673 38055 ft 494 kts 230°
2026-05-05 18:00 48.47213 -102.05761 38070 ft 491 kts 237°
2026-05-05 18:01 48.43221 -102.14044 38060 ft 491 kts 237°
2026-05-05 18:01 48.39185 -102.22347 38058 ft 490 kts 237°
2026-05-05 18:02 48.35166 -102.30618 38066 ft 490 kts 237°
2026-05-05 18:02 48.31149 -102.38842 38068 ft 490 kts 237°
2026-05-05 18:03 48.27121 -102.47074 38075 ft 490 kts 237°
2026-05-05 18:03 48.23061 -102.55341 38079 ft 490 kts 236°
2026-05-05 18:04 48.19006 -102.63576 38076 ft 490 kts 236°
2026-05-05 18:04 48.14964 -102.71757 38075 ft 490 kts 236°
2026-05-05 18:05 48.10892 -102.79977 38083 ft 490 kts 236°
2026-05-05 18:05 48.06838 -102.88133 38077 ft 491 kts 236°
2026-05-05 18:06 48.02739 -102.96357 38089 ft 492 kts 236°
2026-05-05 18:06 47.98737 -103.04360 38096 ft 492 kts 236°
2026-05-05 18:07 47.94632 -103.12546 38096 ft 492 kts 236°
2026-05-05 18:07 47.90542 -103.20678 38101 ft 492 kts 236°
2026-05-05 18:08 47.86416 -103.28857 38092 ft 491 kts 236°
2026-05-05 18:08 47.82311 -103.36969 38098 ft 489 kts 236°
2026-05-05 18:09 47.78234 -103.45003 38101 ft 489 kts 236°
2026-05-05 18:09 47.74125 -103.53076 38094 ft 489 kts 236°
2026-05-05 18:10 47.70069 -103.61021 38107 ft 491 kts 236°
2026-05-05 18:10 47.65950 -103.69066 38106 ft 490 kts 236°
2026-05-05 18:11 47.61812 -103.77126 38111 ft 491 kts 236°
2026-05-05 18:11 47.57682 -103.85145 38113 ft 489 kts 236°
2026-05-05 18:12 47.53557 -103.93130 38105 ft 488 kts 236°
2026-05-05 18:12 47.49404 -104.01075 38123 ft 490 kts 233°
2026-05-05 18:13 47.45088 -104.08877 38115 ft 491 kts 234°
2026-05-05 18:13 47.40766 -104.16688 38120 ft 491 kts 233°
2026-05-05 18:14 47.36421 -104.24482 38129 ft 491 kts 234°
2026-05-05 18:14 47.32090 -104.32265 38122 ft 493 kts 233°
2026-05-05 18:15 47.27740 -104.40027 38121 ft 490 kts 233°
2026-05-05 18:15 47.23395 -104.47784 38113 ft 490 kts 233°
2026-05-05 18:16 47.19059 -104.55487 38108 ft 490 kts 233°
2026-05-05 18:16 47.14720 -104.63184 38101 ft 493 kts 233°
2026-05-05 18:17 47.10323 -104.70952 38139 ft 492 kts 233°
2026-05-05 18:17 47.05943 -104.78674 38146 ft 492 kts 233°
2026-05-05 18:18 47.01571 -104.86358 38130 ft 490 kts 233°
2026-05-05 18:18 46.97195 -104.94030 38138 ft 492 kts 233°
2026-05-05 18:19 46.92823 -105.01671 38139 ft 492 kts 233°
2026-05-05 18:19 46.88415 -105.09355 38140 ft 492 kts 233°
2026-05-05 18:20 46.84023 -105.16989 38143 ft 492 kts 233°
2026-05-05 18:20 46.79597 -105.24660 38123 ft 492 kts 233°
2026-05-05 18:21 46.75190 -105.32278 38144 ft 493 kts 233°
2026-05-05 18:21 46.70767 -105.39900 38140 ft 490 kts 233°
2026-05-05 18:22 46.66349 -105.47496 38136 ft 490 kts 233°
2026-05-05 18:22 46.61935 -105.55061 38103 ft 490 kts 232°
2026-05-05 18:23 46.57519 -105.62612 38128 ft 493 kts 232°
2026-05-05 18:23 46.53065 -105.70202 38119 ft 493 kts 232°
2026-05-05 18:24 46.48635 -105.77733 38111 ft 492 kts 232°
2026-05-05 18:24 46.44191 -105.85266 38110 ft 489 kts 232°
2026-05-05 18:25 46.39770 -105.92742 38133 ft 489 kts 232°
2026-05-05 18:25 46.34756 -105.99248 38141 ft 495 kts 220°
2026-05-05 18:26 46.29296 -106.05277 38144 ft 495 kts 220°
2026-05-05 18:26 46.23823 -106.11374 38129 ft 495 kts 220°
2026-05-05 18:27 46.18386 -106.17381 38129 ft 495 kts 220°
2026-05-05 18:27 46.12928 -106.23412 38127 ft 494 kts 221°
2026-05-05 18:28 46.04718 -106.32444 38129 ft 495 kts 220°
2026-05-05 18:28 45.99275 -106.38418 38115 ft 495 kts 220°
2026-05-05 18:29 45.93798 -106.44407 38125 ft 493 kts 221°
2026-05-05 18:29 45.88339 -106.50369 38123 ft 494 kts 220°
2026-05-05 18:30 45.82881 -106.56309 38119 ft 494 kts 220°
2026-05-05 18:30 45.77397 -106.62265 38117 ft 494 kts 220°
2026-05-05 18:31 45.71910 -106.68206 38113 ft 492 kts 220°
2026-05-05 18:31 45.66456 -106.74103 38107 ft 493 kts 221°
2026-05-05 18:32 45.60987 -106.79995 38104 ft 493 kts 221°
2026-05-05 18:32 45.55498 -106.85896 38110 ft 493 kts 220°
2026-05-05 18:33 45.50023 -106.91767 38106 ft 493 kts 220°
2026-05-05 18:33 45.44522 -106.97652 38106 ft 496 kts 221°
2026-05-05 18:34 45.39121 -107.03414 38105 ft 495 kts 220°
2026-05-05 18:34 45.34525 -107.08307 38096 ft 495 kts 220°
2026-05-05 18:35 45.29011 -107.14165 38104 ft 495 kts 220°
2026-05-05 18:35 45.23475 -107.20029 38097 ft 494 kts 220°
2026-05-05 18:36 45.17948 -107.25874 38110 ft 494 kts 221°
2026-05-05 18:36 45.12438 -107.31681 38111 ft 494 kts 220°
2026-05-05 18:37 45.06934 -107.37471 38110 ft 494 kts 220°
2026-05-05 18:37 45.01421 -107.43254 38112 ft 494 kts 220°
2026-05-05 18:38 44.95913 -107.49018 38114 ft 495 kts 221°
2026-05-05 18:38 44.90372 -107.54804 38118 ft 494 kts 221°
2026-05-05 18:39 44.84863 -107.60540 38106 ft 494 kts 221°
2026-05-05 18:39 44.79401 -107.66215 38105 ft 495 kts 220°
2026-05-05 18:40 44.73871 -107.71944 38084 ft 491 kts 221°
2026-05-05 18:40 44.68347 -107.77659 38065 ft 493 kts 221°
2026-05-05 18:41 44.62814 -107.83364 38030 ft 492 kts 221°
2026-05-05 18:41 44.57387 -107.88949 38024 ft 492 kts 221°
2026-05-05 18:42 44.51856 -107.94625 38001 ft 491 kts 220°
2026-05-05 18:42 44.46317 -108.00299 38024 ft 492 kts 221°
2026-05-05 18:43 44.40802 -108.05931 38020 ft 492 kts 221°
2026-05-05 18:43 44.35266 -108.11574 38014 ft 493 kts 221°
2026-05-05 18:44 44.29752 -108.17179 38012 ft 492 kts 220°
2026-05-05 18:44 44.24190 -108.22822 38014 ft 494 kts 221°
2026-05-05 18:45 44.18667 -108.28409 38025 ft 494 kts 221°
2026-05-05 18:45 44.13107 -108.34022 38029 ft 494 kts 221°
2026-05-05 18:46 44.07553 -108.39615 38009 ft 494 kts 221°
2026-05-05 18:46 44.01992 -108.45200 38026 ft 489 kts 220°
2026-05-05 18:47 43.96484 -108.50724 38034 ft 489 kts 220°
2026-05-05 18:47 43.90984 -108.56223 38030 ft 488 kts 220°
2026-05-05 18:48 43.85453 -108.61742 38033 ft 488 kts 220°
2026-05-05 18:48 43.79970 -108.67196 38038 ft 485 kts 220°
2026-05-05 18:49 43.74511 -108.72620 38030 ft 485 kts 220°
2026-05-05 18:49 43.69017 -108.78062 38029 ft 485 kts 220°
2026-05-05 18:50 43.63550 -108.83467 38016 ft 485 kts 220°
2026-05-05 18:50 43.58058 -108.88881 37995 ft 482 kts 220°
2026-05-05 18:51 43.52598 -108.94258 38015 ft 483 kts 220°
2026-05-05 18:51 43.47118 -108.99634 38002 ft 483 kts 220°
2026-05-05 18:52 43.41673 -109.04970 38000 ft 483 kts 220°
2026-05-05 18:52 43.36183 -109.10333 38000 ft 482 kts 220°
2026-05-05 18:53 43.30750 -109.15633 37993 ft 485 kts 220°
2026-05-05 18:53 43.25249 -109.20984 37990 ft 485 kts 220°
2026-05-05 18:54 43.19738 -109.26334 37970 ft 485 kts 220°
2026-05-05 18:54 43.14245 -109.31654 37971 ft 484 kts 220°
2026-05-05 18:55 43.08796 -109.36922 37968 ft 483 kts 220°
2026-05-05 18:55 43.03282 -109.42235 37942 ft 484 kts 220°
2026-05-05 18:56 42.97757 -109.47554 37934 ft 485 kts 220°
2026-05-05 18:56 42.92201 -109.52887 37904 ft 489 kts 220°
2026-05-05 18:57 42.86676 -109.58176 37901 ft 488 kts 219°
2026-05-05 18:57 42.81109 -109.63498 37908 ft 488 kts 219°
2026-05-05 18:58 42.75548 -109.68798 37991 ft 488 kts 219°
2026-05-05 18:58 42.70002 -109.74076 37988 ft 488 kts 219°
2026-05-05 18:59 42.64452 -109.79342 37963 ft 485 kts 219°
2026-05-05 18:59 42.58906 -109.84599 37959 ft 489 kts 219°
2026-05-05 19:00 42.53303 -109.89890 37967 ft 489 kts 219°
2026-05-05 19:00 42.47713 -109.95163 37960 ft 489 kts 219°
2026-05-05 19:01 42.42158 -110.00388 37965 ft 487 kts 219°
2026-05-05 19:01 42.36587 -110.05619 37950 ft 486 kts 219°
2026-05-05 19:02 42.31041 -110.10814 37917 ft 486 kts 219°
2026-05-05 19:02 42.25483 -110.16008 37902 ft 489 kts 218°
2026-05-05 19:03 42.19869 -110.21245 37889 ft 489 kts 218°
2026-05-05 19:03 42.14296 -110.26430 37882 ft 489 kts 218°
2026-05-05 19:04 42.08680 -110.31645 37904 ft 489 kts 218°
2026-05-05 19:04 42.03141 -110.36777 37931 ft 489 kts 218°
2026-05-05 19:05 41.97514 -110.41980 37944 ft 489 kts 218°
2026-05-05 19:05 41.91884 -110.47174 38001 ft 490 kts 219°
2026-05-05 19:06 41.86250 -110.52361 38013 ft 495 kts 218°
2026-05-05 19:06 41.80551 -110.57594 38013 ft 496 kts 218°
2026-05-05 19:07 41.74852 -110.62818 37857 ft 496 kts 218°
2026-05-05 19:07 41.69189 -110.67996 37850 ft 496 kts 218°
2026-05-05 19:08 41.63470 -110.73215 37846 ft 496 kts 218°
2026-05-05 19:08 41.57784 -110.78391 37859 ft 496 kts 218°
2026-05-05 19:09 41.52048 -110.83603 37864 ft 500 kts 217°
2026-05-05 19:09 41.46292 -110.88821 37937 ft 502 kts 217°
2026-05-05 19:10 41.40512 -110.94049 37977 ft 501 kts 217°
2026-05-05 19:10 41.34749 -110.99251 38006 ft 501 kts 217°
2026-05-05 19:11 41.28979 -111.04447 38005 ft 501 kts 217°
2026-05-05 19:11 41.23184 -111.09656 37997 ft 502 kts 217°
2026-05-05 19:12 41.17423 -111.14821 37968 ft 502 kts 217°
2026-05-05 19:12 41.11606 -111.20027 37938 ft 505 kts 216°
2026-05-05 19:13 41.05792 -111.25215 37901 ft 505 kts 217°
2026-05-05 19:13 40.99947 -111.30425 37844 ft 505 kts 216°
2026-05-05 19:14 40.94123 -111.35600 37831 ft 502 kts 216°
2026-05-05 19:14 40.88343 -111.40728 37824 ft 501 kts 216°
2026-05-05 19:15 40.82570 -111.45837 37827 ft 501 kts 216°
2026-05-05 19:15 40.76779 -111.50953 37869 ft 501 kts 216°
2026-05-05 19:16 40.70963 -111.56079 37891 ft 502 kts 216°
2026-05-05 19:16 40.65161 -111.61182 37859 ft 502 kts 216°
2026-05-05 19:17 40.59383 -111.66253 37878 ft 502 kts 216°
2026-05-05 19:17 40.53541 -111.71368 37893 ft 502 kts 216°
2026-05-05 19:18 40.47773 -111.76410 37888 ft 501 kts 215°
2026-05-05 19:18 40.41963 -111.81477 37901 ft 504 kts 215°
2026-05-05 19:19 40.36094 -111.86584 37915 ft 505 kts 215°
2026-05-05 19:19 40.30264 -111.91646 37918 ft 505 kts 215°
2026-05-05 19:20 40.24216 -111.96362 37909 ft 505 kts 208°
2026-05-05 19:20 40.17995 -112.00584 37895 ft 503 kts 208°
2026-05-05 19:21 40.11810 -112.04885 37868 ft 503 kts 209°
2026-05-05 19:21 40.05632 -112.09111 37814 ft 503 kts 208°
2026-05-05 19:22 39.99432 -112.13376 37806 ft 502 kts 208°
2026-05-05 19:22 39.93207 -112.17632 37800 ft 505 kts 208°
2026-05-05 19:23 39.86990 -112.21881 37799 ft 505 kts 208°
2026-05-05 19:23 39.80741 -112.26141 37801 ft 505 kts 208°
2026-05-05 19:24 39.74533 -112.30365 37808 ft 503 kts 208°
2026-05-05 19:24 39.68339 -112.34571 37799 ft 502 kts 208°
2026-05-05 19:25 39.62148 -112.38765 37795 ft 502 kts 208°
2026-05-05 19:25 39.55955 -112.42954 37795 ft 502 kts 208°
2026-05-05 19:26 39.49771 -112.47126 37786 ft 500 kts 207°
2026-05-05 19:26 39.43583 -112.51295 37913 ft 501 kts 207°
2026-05-05 19:27 39.38462 -112.54737 37912 ft 501 kts 207°
2026-05-05 19:27 39.34339 -112.57505 37773 ft 501 kts 207°
2026-05-05 19:27 39.32270 -112.58893 37773 ft 501 kts 207°
2026-05-05 19:28 39.25082 -112.63705 37779 ft 498 kts 207°
2026-05-05 19:28 39.19957 -112.67130 37777 ft 498 kts 207°
2026-05-05 19:29 39.13791 -112.71243 37779 ft 498 kts 207°
2026-05-05 19:29 39.06629 -112.76010 37779 ft 498 kts 207°
2026-05-05 19:30 39.01499 -112.79418 37785 ft 497 kts 207°
2026-05-05 19:30 38.95340 -112.83502 37785 ft 499 kts 207°
2026-05-05 19:31 38.89167 -112.87587 37791 ft 499 kts 207°
2026-05-05 19:31 38.82992 -112.91666 37797 ft 499 kts 207°
2026-05-05 19:32 38.76814 -112.95738 37793 ft 497 kts 207°
2026-05-05 19:32 38.70676 -112.99776 37801 ft 497 kts 207°
2026-05-05 19:33 38.64557 -113.03795 37871 ft 496 kts 207°
2026-05-05 19:33 38.58398 -113.07831 37895 ft 497 kts 207°
2026-05-05 19:34 38.52244 -113.11855 37906 ft 495 kts 207°
2026-05-05 19:35 38.43026 -113.17871 37909 ft 497 kts 207°
2026-05-05 19:35 38.36883 -113.21869 37891 ft 496 kts 207°
2026-05-05 19:36 38.30738 -113.25862 37864 ft 497 kts 207°
2026-05-05 19:36 38.24602 -113.29841 37840 ft 496 kts 207°
2026-05-05 19:37 38.18445 -113.33825 37809 ft 497 kts 207°
2026-05-05 19:37 38.12276 -113.37811 37804 ft 497 kts 207°
2026-05-05 19:38 38.06107 -113.41788 37808 ft 497 kts 207°
2026-05-05 19:38 37.99939 -113.45756 37805 ft 496 kts 207°
2026-05-05 19:39 37.93763 -113.49586 37837 ft 496 kts 199°
2026-05-05 19:39 37.87034 -113.51552 37820 ft 496 kts 190°
2026-05-05 19:40 37.80253 -113.53143 37821 ft 496 kts 191°
2026-05-05 19:40 37.73533 -113.54795 37831 ft 492 kts 191°
2026-05-05 19:41 37.66790 -113.56398 37838 ft 492 kts 191°
2026-05-05 19:41 37.60073 -113.58023 37838 ft 492 kts 191°
2026-05-05 19:42 37.53375 -113.59622 37849 ft 489 kts 191°
2026-05-05 19:42 37.46734 -113.61215 37847 ft 486 kts 191°
2026-05-05 19:43 37.40108 -113.62797 37852 ft 484 kts 191°
2026-05-05 19:43 37.33488 -113.64374 37852 ft 483 kts 192°
2026-05-05 19:44 37.26909 -113.65941 37849 ft 481 kts 191°
2026-05-05 19:44 37.20344 -113.67502 37882 ft 480 kts 192°
2026-05-05 19:45 37.13752 -113.69064 37891 ft 480 kts 192°
2026-05-05 19:45 37.07176 -113.70621 37894 ft 481 kts 192°
2026-05-05 19:46 37.00798 -113.72972 37901 ft 479 kts 203°
2026-05-05 19:46 36.94645 -113.76206 37883 ft 479 kts 201°
2026-05-05 19:47 36.88386 -113.79094 37881 ft 480 kts 202°
2026-05-05 19:47 36.82197 -113.82166 37860 ft 479 kts 202°
2026-05-05 19:48 36.75971 -113.85131 37854 ft 480 kts 202°
2026-05-05 19:48 36.69719 -113.88163 37854 ft 480 kts 202°
2026-05-05 19:49 36.63555 -113.91294 37848 ft 480 kts 205°
2026-05-05 19:49 36.57472 -113.94628 37838 ft 477 kts 205°
2026-05-05 19:50 36.51417 -113.97981 37835 ft 476 kts 205°
2026-05-05 19:50 36.45382 -114.01299 37832 ft 476 kts 205°
2026-05-05 19:51 36.39404 -114.04883 37848 ft 475 kts 212°
2026-05-05 19:51 36.33855 -114.09256 37843 ft 473 kts 214°
2026-05-05 19:52 36.28226 -114.13535 37838 ft 473 kts 212°
2026-05-05 19:52 36.22653 -114.17815 37834 ft 473 kts 213°
2026-05-05 19:53 36.17062 -114.22093 37823 ft 474 kts 212°
2026-05-05 19:53 36.11441 -114.26378 37823 ft 474 kts 213°
2026-05-05 19:54 36.06270 -114.31259 37834 ft 468 kts 227°
2026-05-05 19:54 36.02103 -114.37452 37833 ft 466 kts 232°
2026-05-05 19:55 35.97836 -114.43512 37833 ft 469 kts 227°
2026-05-05 19:55 35.93443 -114.49452 37847 ft 469 kts 230°
2026-05-05 19:56 35.89137 -114.55491 37862 ft 469 kts 228°
2026-05-05 19:56 35.84770 -114.61438 37825 ft 470 kts 229°
2026-05-05 19:57 35.80423 -114.67455 37880 ft 470 kts 229°
2026-05-05 19:57 35.76033 -114.73455 37879 ft 470 kts 229°
2026-05-05 19:58 35.71696 -114.79410 37907 ft 470 kts 229°
2026-05-05 19:58 35.67324 -114.85380 37911 ft 470 kts 229°
2026-05-05 19:59 35.62951 -114.91366 37911 ft 470 kts 229°
2026-05-05 19:59 35.58580 -114.97345 37910 ft 470 kts 229°
2026-05-05 20:00 35.54194 -115.03328 37917 ft 473 kts 229°
2026-05-05 20:00 35.49770 -115.09261 37923 ft 473 kts 227°
2026-05-05 20:01 35.45288 -115.15181 37913 ft 474 kts 228°
2026-05-05 20:01 35.40776 -115.21051 37920 ft 470 kts 227°
2026-05-05 20:02 35.36330 -115.26853 37923 ft 468 kts 227°
2026-05-05 20:02 35.31865 -115.32661 37912 ft 468 kts 227°
2026-05-05 20:03 35.27379 -115.38487 37913 ft 471 kts 227°
2026-05-05 20:03 35.22880 -115.44323 37922 ft 471 kts 227°
2026-05-05 20:04 35.18377 -115.50150 37917 ft 472 kts 227°
2026-05-05 20:04 35.13889 -115.55950 37920 ft 472 kts 227°
2026-05-05 20:05 35.09368 -115.61762 37918 ft 469 kts 227°
2026-05-05 20:05 35.04881 -115.67488 37907 ft 470 kts 227°
2026-05-05 20:06 35.00352 -115.73278 37905 ft 470 kts 227°
2026-05-05 20:06 34.95831 -115.79034 37901 ft 470 kts 227°
2026-05-05 20:07 34.91313 -115.84786 37895 ft 470 kts 227°
2026-05-05 20:07 34.86793 -115.90526 37892 ft 470 kts 227°
2026-05-05 20:08 34.82272 -115.96260 37895 ft 471 kts 227°
2026-05-05 20:08 34.77721 -116.02021 37896 ft 470 kts 227°
2026-05-05 20:09 34.73222 -116.07750 37835 ft 467 kts 228°
2026-05-05 20:09 34.70990 -116.10605 37490 ft 464 kts 227°
2026-05-05 20:09 34.68769 -116.13427 37181 ft 462 kts 227°
2026-05-05 20:09 34.66564 -116.16224 36868 ft 459 kts 227°
2026-05-05 20:10 34.64358 -116.19028 36564 ft 456 kts 227°
2026-05-05 20:10 34.62180 -116.21796 36061 ft 456 kts 227°
2026-05-05 20:10 34.59973 -116.24596 35523 ft 454 kts 227°
2026-05-05 20:10 34.57785 -116.27367 35002 ft 452 kts 227°
2026-05-05 20:11 34.55612 -116.30118 34465 ft 451 kts 227°
2026-05-05 20:11 34.53455 -116.32849 33950 ft 449 kts 227°
2026-05-05 20:11 34.51309 -116.35562 33390 ft 447 kts 227°
2026-05-05 20:11 34.49157 -116.38281 32869 ft 444 kts 227°
2026-05-05 20:12 34.47026 -116.40970 32343 ft 441 kts 227°
2026-05-05 20:12 34.44923 -116.43623 31844 ft 437 kts 227°
2026-05-05 20:12 34.42827 -116.46266 31330 ft 434 kts 227°
2026-05-05 20:12 34.40947 -116.49109 30872 ft 430 kts 239°
2026-05-05 20:13 34.39529 -116.52254 30370 ft 427 kts 245°
2026-05-05 20:13 34.38339 -116.55535 29855 ft 425 kts 248°
2026-05-05 20:13 34.37184 -116.58820 29335 ft 421 kts 246°
2026-05-05 20:13 34.35888 -116.61970 28848 ft 417 kts 242°
2026-05-05 20:14 34.34520 -116.65040 28382 ft 413 kts 244°
2026-05-05 20:14 34.33225 -116.68136 27902 ft 409 kts 245°
2026-05-05 20:14 34.31996 -116.71280 27231 ft 410 kts 246°
2026-05-05 20:14 34.30788 -116.74376 26689 ft 409 kts 245°
2026-05-05 20:15 34.29540 -116.77448 26166 ft 408 kts 245°
2026-05-05 20:15 34.28280 -116.80531 25627 ft 406 kts 245°
2026-05-05 20:15 34.27059 -116.83566 25093 ft 405 kts 246°
2026-05-05 20:15 34.25828 -116.86642 24557 ft 404 kts 245°
2026-05-05 20:16 34.24590 -116.89707 24042 ft 404 kts 245°
2026-05-05 20:16 34.23362 -116.92732 23504 ft 404 kts 246°
2026-05-05 20:16 34.22138 -116.95758 22943 ft 402 kts 246°
2026-05-05 20:16 34.20969 -116.98819 22407 ft 398 kts 252°
2026-05-05 20:17 34.20081 -117.01993 21885 ft 395 kts 254°
2026-05-05 20:17 34.19266 -117.05127 21314 ft 393 kts 255°
2026-05-05 20:17 34.18436 -117.08272 20793 ft 391 kts 254°
2026-05-05 20:17 34.17583 -117.11377 20289 ft 389 kts 253°
2026-05-05 20:18 34.16734 -117.14460 19781 ft 387 kts 254°
2026-05-05 20:18 34.15902 -117.17529 19278 ft 385 kts 254°
2026-05-05 20:18 34.15068 -117.20581 18830 ft 384 kts 253°
2026-05-05 20:18 34.14220 -117.23643 18318 ft 382 kts 253°
2026-05-05 20:19 34.13377 -117.26701 17778 ft 380 kts 252°
2026-05-05 20:19 34.12552 -117.29698 17284 ft 376 kts 253°
2026-05-05 20:19 34.11733 -117.32671 16777 ft 373 kts 253°
2026-05-05 20:19 34.10920 -117.35617 16298 ft 370 kts 252°
2026-05-05 20:20 34.10189 -117.38600 15807 ft 366 kts 256°
2026-05-05 20:20 34.09454 -117.41519 15314 ft 364 kts 253°
2026-05-05 20:20 34.08665 -117.44419 14837 ft 362 kts 253°
2026-05-05 20:20 34.07935 -117.47301 14366 ft 359 kts 255°
2026-05-05 20:21 34.07244 -117.50154 14006 ft 353 kts 255°
2026-05-05 20:21 34.06543 -117.52947 13897 ft 341 kts 254°
2026-05-05 20:21 34.05837 -117.55659 13628 ft 334 kts 254°
2026-05-05 20:21 34.05154 -117.58302 13334 ft 329 kts 254°
2026-05-05 20:22 34.04711 -117.60041 13142 ft 326 kts 255°
2026-05-05 20:22 34.03836 -117.63486 12809 ft 319 kts 254°
2026-05-05 20:22 34.03399 -117.65190 12565 ft 319 kts 254°
2026-05-05 20:22 34.02530 -117.68566 12059 ft 313 kts 255°
2026-05-05 20:23 34.02163 -117.70224 11832 ft 304 kts 263°
2026-05-05 20:23 34.01831 -117.73525 11321 ft 294 kts 265°
2026-05-05 20:23 34.01686 -117.75150 11022 ft 292 kts 265°
2026-05-05 20:23 34.01454 -117.77599 10566 ft 289 kts 266°
2026-05-05 20:24 34.01221 -117.79971 10198 ft 285 kts 266°
2026-05-05 20:24 34.00990 -117.82328 10049 ft 279 kts 266°
2026-05-05 20:24 34.00766 -117.84646 9843 ft 278 kts 266°
2026-05-05 20:24 34.00540 -117.86964 9656 ft 277 kts 265°
2026-05-05 20:25 34.00315 -117.89251 9463 ft 276 kts 265°
2026-05-05 20:25 34.00086 -117.91545 9161 ft 273 kts 266°
2026-05-05 20:25 33.99868 -117.93797 8790 ft 271 kts 266°
2026-05-05 20:25 33.99648 -117.96048 8420 ft 268 kts 266°
2026-05-05 20:26 33.99433 -117.98256 8055 ft 266 kts 264°
2026-05-05 20:26 33.99212 -118.00472 7682 ft 264 kts 265°
2026-05-05 20:26 33.98993 -118.02673 7318 ft 262 kts 264°
2026-05-05 20:26 33.98777 -118.04821 7098 ft 255 kts 264°
2026-05-05 20:27 33.98570 -118.06889 6802 ft 246 kts 264°
2026-05-05 20:27 33.98367 -118.08930 6210 ft 243 kts 265°
2026-05-05 20:27 33.98170 -118.10925 5618 ft 240 kts 264°
2026-05-05 20:27 33.97971 -118.12924 5034 ft 237 kts 263°
2026-05-05 20:28 33.97776 -118.14864 4551 ft 231 kts 263°
2026-05-05 20:28 33.97589 -118.16733 4215 ft 216 kts 262°
2026-05-05 20:28 33.97413 -118.18481 3814 ft 208 kts 262°
2026-05-05 20:28 33.97255 -118.20202 3448 ft 201 kts 263°
2026-05-05 20:29 33.97098 -118.21854 3169 ft 196 kts 261°
2026-05-05 20:29 33.96935 -118.23449 2918 ft 189 kts 261°
2026-05-05 20:29 33.96776 -118.25003 2646 ft 184 kts 261°
2026-05-05 20:29 33.96623 -118.26507 2410 ft 178 kts 260°
2026-05-05 20:30 33.96477 -118.27953 2180 ft 166 kts 260°
2026-05-05 20:30 33.96335 -118.29278 1948 ft 155 kts 259°
2026-05-05 20:30 33.96210 -118.30515 1749 ft 146 kts 260°
2026-05-05 20:30 33.96083 -118.31749 1583 ft 148 kts 261°
2026-05-05 20:31 33.95958 -118.32938 1364 ft 147 kts 259°
2026-05-05 20:31 33.95836 -118.34154 1187 ft 140 kts 262°
2026-05-05 20:31 33.95709 -118.35350 1035 ft 150 kts 261°
2026-05-05 20:31 33.95573 -118.36549 849 ft 143 kts 260°
2026-05-05 20:32 33.95450 -118.37687 657 ft 133 kts 262°
2026-05-05 20:32 33.95343 -118.38768 397 ft 129 kts 263°
2026-05-05 20:32 33.95243 -118.39875 248 ft 131 kts 263°
2026-05-05 20:32 33.95137 -118.40903 134 ft 111 kts 263°
2026-05-05 20:33 33.95069 -118.41574 135 ft 54 kts 263°
2026-05-05 20:33 33.95025 -118.42007 135 ft 49 kts 263°
2026-05-05 20:33 33.94982 -118.42386 132 ft 43 kts 260°
2026-05-05 20:33 33.94870 -118.42618 131 ft 23 kts 225°
2026-05-05 20:34 33.94781 -118.42724 127 ft 17 kts 217°
2026-05-05 20:34 33.94689 -118.42784 128 ft 12 kts 189°
2026-05-05 20:34 33.94648 -118.42771 130 ft 2 kts 126°
2026-05-05 20:34 33.94645 -118.42747 131 ft 5 kts 93°
2026-05-05 20:35 33.94642 -118.42667 135 ft 14 kts 90°
2026-05-05 20:35 33.94654 -118.42521 135 ft 21 kts 83°
2026-05-05 20:35 33.94691 -118.42383 130 ft 5 kts 63°
2026-05-05 20:35 33.94691 -118.42347 131 ft 7 kts 94°
2026-05-05 20:36 33.94688 -118.42253 128 ft 15 kts 90°
2026-05-05 20:36 33.94697 -118.42098 135 ft 20 kts 84°
2026-05-05 20:36 33.94713 -118.41930 135 ft 21 kts 83°
2026-05-05 20:36 33.94732 -118.41744 131 ft 24 kts 82°
2026-05-05 20:37 33.94758 -118.41543 128 ft 22 kts 79°
2026-05-05 20:37 33.94784 -118.41388 135 ft 15 kts 80°
2026-05-05 20:37 33.94765 -118.41302 131 ft 8 kts 141°
2026-05-05 20:37 33.94724 -118.41288 130 ft 5 kts 176°
2026-05-05 20:38 33.94690 -118.41284 131 ft 7 kts 174°
2026-05-05 20:38 33.94627 -118.41275 132 ft 12 kts 174°
2026-05-05 20:38 33.94529 -118.41261 133 ft 16 kts 172°
2026-05-05 20:38 33.94405 -118.41243 134 ft 19 kts 174°
2026-05-05 20:39 33.94275 -118.41223 131 ft 19 kts 173°
2026-05-05 20:39 33.94176 -118.41194 130 ft 6 kts 132°
2026-05-05 20:39 33.94171 -118.41163 126 ft 3 kts 84°
2026-05-05 20:39 33.94176 -118.41117 132 ft 7 kts 82°
2026-05-05 20:40 33.94177 -118.41101 135 ft 2 kts 84°
2026-05-05 20:40 33.94177 -118.41100 135 ft 0 kts 84°